DAL26 RKSI-KATL

Flight info

Callsign DAL26
Flight time N/A
Altitude 35000
Route EGOBA2H EGOBA Y697 LANAT Y51 SAMON Y142 GTC Y512 ADNAP OTR5 KALNA DCT 41N160E 44N170E 47N180W 50N170W 53N160W 56N150W DCT HMPTN DCT 56N140W DCT EEDEN DCT ANN DCT 55N130W 55N126W 54N120W 52N110W 50N105W DCT MOT DCT RWF DCT ALO DCT ENL DCT HITMN DCT NEWBB DCT IHAVE DCT MTHEW CHPPR1
Aircraft A359/H-SDE2E3GHIJ3J4J5LM1ORWXY/LB1D1

Departure

Time 2026-05-05 14:44
Airport Incheon International Airport (RKSI)

Arrival

Time N/A
Airport Hartsfield Jackson Atlanta International Airport (KATL)
Time Latitude Longitude Altitude Speed Heading
2026-05-05 14:41 37.47275 126.42107 33 ft 0 kts 235°
2026-05-05 14:41 37.47274 126.42106 33 ft 0 kts 235°
2026-05-05 14:42 37.47257 126.42036 33 ft 20 kts 277°
2026-05-05 14:42 37.47315 126.41876 33 ft 15 kts 260°
2026-05-05 14:42 37.47306 126.41849 33 ft 0 kts 237°
2026-05-05 14:42 37.47303 126.41843 33 ft 1 kts 240°
2026-05-05 14:43 37.47238 126.41708 33 ft 24 kts 226°
2026-05-05 14:43 37.47085 126.41736 33 ft 35 kts 146°
2026-05-05 14:43 37.46696 126.42072 33 ft 99 kts 144°
2026-05-05 14:43 37.45972 126.42715 34 ft 152 kts 144°
2026-05-05 14:44 37.45018 126.43527 321 ft 169 kts 147°
2026-05-05 14:44 37.44017 126.44257 875 ft 171 kts 153°
2026-05-05 14:44 37.42902 126.44988 1252 ft 187 kts 151°
2026-05-05 14:44 37.41746 126.45823 1561 ft 199 kts 148°
2026-05-05 14:45 37.40532 126.46782 1864 ft 213 kts 147°
2026-05-05 14:45 37.39249 126.47828 2172 ft 228 kts 150°
2026-05-05 14:45 37.37781 126.48679 2480 ft 243 kts 162°
2026-05-05 14:45 37.36105 126.49297 2815 ft 257 kts 165°
2026-05-05 14:46 37.34367 126.49869 3328 ft 264 kts 165°
2026-05-05 14:46 37.32578 126.50455 3964 ft 266 kts 165°
2026-05-05 14:46 37.30806 126.51041 4584 ft 268 kts 165°
2026-05-05 14:46 37.29097 126.51919 5154 ft 271 kts 142°
2026-05-05 14:47 37.27922 126.53760 5745 ft 272 kts 111°
2026-05-05 14:47 37.27548 126.56077 6351 ft 274 kts 95°
2026-05-05 14:47 37.27399 126.58441 6931 ft 277 kts 94°
2026-05-05 14:47 37.27251 126.60880 7511 ft 280 kts 93°
2026-05-05 14:48 37.27187 126.63303 8086 ft 282 kts 89°
2026-05-05 14:48 37.27276 126.65758 8658 ft 284 kts 86°
2026-05-05 14:48 37.27417 126.68250 9227 ft 287 kts 86°
2026-05-05 14:48 37.27561 126.70752 9737 ft 289 kts 86°
2026-05-05 14:49 37.27703 126.73267 9974 ft 290 kts 86°
2026-05-05 14:49 37.27840 126.75779 9991 ft 290 kts 86°
2026-05-05 14:49 37.27976 126.78298 9997 ft 290 kts 86°
2026-05-05 14:49 37.28112 126.80844 10000 ft 290 kts 86°
2026-05-05 14:50 37.28245 126.83342 10001 ft 290 kts 86°
2026-05-05 14:50 37.28380 126.85882 10002 ft 290 kts 86°
2026-05-05 14:50 37.28515 126.88399 10001 ft 290 kts 85°
2026-05-05 14:50 37.28720 126.90929 10002 ft 290 kts 83°
2026-05-05 14:51 37.28949 126.93440 10002 ft 290 kts 83°
2026-05-05 14:51 37.29179 126.95951 10002 ft 290 kts 83°
2026-05-05 14:51 37.29405 126.98431 10002 ft 290 kts 83°
2026-05-05 14:51 37.29634 127.00960 10002 ft 290 kts 83°
2026-05-05 14:52 37.29860 127.03473 10002 ft 290 kts 83°
2026-05-05 14:52 37.30085 127.05973 10002 ft 290 kts 83°
2026-05-05 14:52 37.30311 127.08486 10002 ft 290 kts 83°
2026-05-05 14:52 37.30579 127.11004 10002 ft 290 kts 79°
2026-05-05 14:53 37.31006 127.13462 10002 ft 290 kts 75°
2026-05-05 14:53 37.31596 127.15891 10003 ft 290 kts 72°
2026-05-05 14:53 37.32230 127.18296 10002 ft 290 kts 71°
2026-05-05 14:53 37.32860 127.20672 10002 ft 290 kts 71°
2026-05-05 14:54 37.33535 127.23058 10009 ft 292 kts 64°
2026-05-05 14:54 37.34676 127.25204 10262 ft 299 kts 46°
2026-05-05 14:54 37.36279 127.26907 10535 ft 311 kts 36°
2026-05-05 14:54 37.38083 127.28497 10793 ft 324 kts 34°
2026-05-05 14:55 37.39978 127.30128 11046 ft 337 kts 34°
2026-05-05 14:55 37.41943 127.31835 11294 ft 349 kts 34°
2026-05-05 14:55 37.43972 127.33621 11535 ft 362 kts 34°
2026-05-05 14:55 37.46053 127.35473 11767 ft 373 kts 37°
2026-05-05 14:56 37.47920 127.37752 11973 ft 385 kts 53°
2026-05-05 14:56 37.49200 127.40731 12285 ft 392 kts 71°
2026-05-05 14:56 37.49856 127.44062 12792 ft 395 kts 78°
2026-05-05 14:56 37.50375 127.47478 13298 ft 397 kts 79°
2026-05-05 14:57 37.50885 127.50922 13771 ft 400 kts 79°
2026-05-05 14:57 37.51409 127.54363 14236 ft 403 kts 79°
2026-05-05 14:57 37.51947 127.57822 14693 ft 406 kts 78°
2026-05-05 14:57 37.52494 127.61288 15136 ft 408 kts 78°
2026-05-05 14:58 37.53053 127.64803 15572 ft 411 kts 78°
2026-05-05 14:58 37.53613 127.68328 16001 ft 413 kts 79°
2026-05-05 14:58 37.54177 127.71874 16422 ft 416 kts 79°
2026-05-05 14:58 37.54750 127.75491 16842 ft 418 kts 79°
2026-05-05 14:59 37.55312 127.79041 17244 ft 421 kts 79°
2026-05-05 14:59 37.55886 127.82676 17646 ft 423 kts 79°
2026-05-05 14:59 37.56459 127.86320 18036 ft 426 kts 79°
2026-05-05 14:59 37.57035 127.89989 18419 ft 428 kts 79°
2026-05-05 15:00 37.57616 127.93692 18797 ft 430 kts 79°
2026-05-05 15:00 37.57999 127.96145 19041 ft 432 kts 79°
2026-05-05 15:00 37.58776 128.01119 19524 ft 435 kts 79°
2026-05-05 15:00 37.59358 128.04854 19878 ft 437 kts 79°
2026-05-05 15:01 37.59940 128.08604 20227 ft 439 kts 79°
2026-05-05 15:01 37.60521 128.12352 20567 ft 441 kts 79°
2026-05-05 15:01 37.61112 128.16165 20906 ft 444 kts 79°
2026-05-05 15:01 37.61706 128.20004 21240 ft 446 kts 79°
2026-05-05 15:02 37.62295 128.23814 21564 ft 448 kts 79°
2026-05-05 15:02 37.62891 128.27683 21885 ft 450 kts 79°
2026-05-05 15:02 37.63484 128.31554 22202 ft 452 kts 79°
2026-05-05 15:02 37.64084 128.35472 22515 ft 454 kts 79°
2026-05-05 15:03 37.64674 128.39342 22817 ft 456 kts 79°
2026-05-05 15:03 37.65273 128.43282 23118 ft 457 kts 79°
2026-05-05 15:03 37.65874 128.47247 23329 ft 460 kts 79°
2026-05-05 15:03 37.66471 128.51193 23601 ft 462 kts 79°
2026-05-05 15:04 37.67068 128.55145 23887 ft 463 kts 79°
2026-05-05 15:04 37.67675 128.59178 24166 ft 465 kts 79°
2026-05-05 15:04 37.68272 128.63165 24429 ft 467 kts 79°
2026-05-05 15:04 37.68872 128.67197 24684 ft 469 kts 79°
2026-05-05 15:05 37.69128 128.75411 25125 ft 472 kts 101°
2026-05-05 15:05 37.68158 128.79315 25343 ft 474 kts 115°
2026-05-05 15:05 37.66586 128.82945 25589 ft 475 kts 121°
2026-05-05 15:06 37.64854 128.86543 25817 ft 476 kts 122°
2026-05-05 15:06 37.63126 128.90074 26021 ft 478 kts 122°
2026-05-05 15:06 37.61975 128.92427 26157 ft 479 kts 122°
2026-05-05 15:06 37.59644 128.97223 26505 ft 479 kts 121°
2026-05-05 15:07 37.57928 129.00769 26813 ft 478 kts 121°
2026-05-05 15:07 37.56201 129.04349 27112 ft 477 kts 121°
2026-05-05 15:07 37.54487 129.07903 27388 ft 476 kts 121°
2026-05-05 15:07 37.52760 129.11482 27655 ft 476 kts 121°
2026-05-05 15:08 37.51043 129.15037 27915 ft 475 kts 121°
2026-05-05 15:08 37.49332 129.18578 28169 ft 475 kts 121°
2026-05-05 15:08 37.47629 129.22096 28417 ft 474 kts 121°
2026-05-05 15:08 37.45916 129.25632 28662 ft 474 kts 121°
2026-05-05 15:09 37.44212 129.29146 28900 ft 473 kts 121°
2026-05-05 15:09 37.42491 129.32698 29134 ft 473 kts 121°
2026-05-05 15:09 37.40792 129.36203 29359 ft 472 kts 121°
2026-05-05 15:09 37.39093 129.39703 29578 ft 472 kts 121°
2026-05-05 15:10 37.37395 129.43198 29792 ft 471 kts 121°
2026-05-05 15:10 37.35673 129.46736 30002 ft 471 kts 121°
2026-05-05 15:10 37.33968 129.50233 30205 ft 471 kts 121°
2026-05-05 15:10 37.32280 129.53694 30401 ft 470 kts 121°
2026-05-05 15:11 37.30561 129.57213 30595 ft 470 kts 121°
2026-05-05 15:11 37.28851 129.60710 30781 ft 469 kts 121°
2026-05-05 15:11 37.27172 129.64139 30959 ft 469 kts 121°
2026-05-05 15:11 37.25461 129.67636 31135 ft 469 kts 122°
2026-05-05 15:12 37.23756 129.71126 31306 ft 468 kts 122°
2026-05-05 15:12 37.22053 129.74605 31472 ft 468 kts 122°
2026-05-05 15:12 37.20372 129.78029 31633 ft 468 kts 122°
2026-05-05 15:12 37.18653 129.81519 31792 ft 467 kts 122°
2026-05-05 15:13 37.16957 129.84963 31946 ft 467 kts 122°
2026-05-05 15:13 37.15265 129.88400 32095 ft 467 kts 122°
2026-05-05 15:13 37.13564 129.91856 32241 ft 466 kts 122°
2026-05-05 15:13 37.11850 129.95331 32384 ft 466 kts 122°
2026-05-05 15:14 37.10149 129.98773 32522 ft 466 kts 122°
2026-05-05 15:14 37.08445 130.02219 32658 ft 465 kts 122°
2026-05-05 15:14 37.06766 130.05608 32787 ft 465 kts 122°
2026-05-05 15:14 37.05065 130.09036 32914 ft 465 kts 122°
2026-05-05 15:15 37.03364 130.12465 33038 ft 465 kts 122°
2026-05-05 15:15 37.01661 130.15892 33153 ft 464 kts 122°
2026-05-05 15:15 36.99961 130.19310 33344 ft 462 kts 122°
2026-05-05 15:15 36.98268 130.22708 33559 ft 460 kts 122°
2026-05-05 15:16 36.96582 130.26088 33684 ft 459 kts 122°
2026-05-05 15:16 36.93193 130.32872 33817 ft 461 kts 122°
2026-05-05 15:17 36.89808 130.39636 33960 ft 462 kts 122°
2026-05-05 15:17 36.86577 130.46037 34096 ft 462 kts 122°
2026-05-05 15:18 36.83158 130.52812 34228 ft 463 kts 122°
2026-05-05 15:18 36.79728 130.59625 34353 ft 464 kts 122°
2026-05-05 15:19 36.76297 130.66431 34472 ft 464 kts 122°
2026-05-05 15:19 36.72882 130.73215 34581 ft 465 kts 122°
2026-05-05 15:20 36.69440 130.80029 34689 ft 465 kts 122°
2026-05-05 15:20 36.66012 130.86791 34784 ft 466 kts 122°
2026-05-05 15:21 36.62552 130.93599 34869 ft 467 kts 122°
2026-05-05 15:21 36.59083 131.00409 34955 ft 467 kts 122°
2026-05-05 15:22 36.55598 131.07237 35004 ft 468 kts 122°
2026-05-05 15:22 36.52125 131.14027 35006 ft 470 kts 122°
2026-05-05 15:23 36.48614 131.20880 35006 ft 472 kts 122°
2026-05-05 15:23 36.45091 131.27739 35006 ft 472 kts 122°
2026-05-05 15:24 36.41662 131.34644 35005 ft 472 kts 118°
2026-05-05 15:24 36.39021 131.42075 35006 ft 472 kts 108°
2026-05-05 15:25 36.37410 131.49947 35006 ft 472 kts 99°
2026-05-05 15:25 36.36829 131.58048 35007 ft 472 kts 92°
2026-05-05 15:26 36.36602 131.66025 35006 ft 472 kts 92°
2026-05-05 15:26 36.36367 131.74158 35006 ft 472 kts 92°
2026-05-05 15:27 36.36115 131.82245 35006 ft 472 kts 92°
2026-05-05 15:27 36.35849 131.90358 35006 ft 472 kts 92°
2026-05-05 15:28 36.35576 131.98505 35006 ft 472 kts 92°
2026-05-05 15:28 36.35297 132.06599 35006 ft 472 kts 92°
2026-05-05 15:29 36.35014 132.14690 35006 ft 472 kts 92°
2026-05-05 15:29 36.34723 132.22827 35006 ft 472 kts 92°
2026-05-05 15:30 36.34426 132.30969 35006 ft 472 kts 92°
2026-05-05 15:30 36.34125 132.39062 35007 ft 473 kts 92°
2026-05-05 15:31 36.33818 132.47208 35006 ft 475 kts 92°
2026-05-05 15:31 36.33504 132.55397 35006 ft 476 kts 92°
2026-05-05 15:32 36.33185 132.63541 35006 ft 476 kts 92°
2026-05-05 15:32 36.32859 132.71744 35006 ft 476 kts 93°
2026-05-05 15:33 36.32529 132.79904 35006 ft 476 kts 93°
2026-05-05 15:33 36.32192 132.88088 35006 ft 476 kts 93°
2026-05-05 15:34 36.31849 132.96277 35006 ft 476 kts 93°
2026-05-05 15:34 36.31502 133.04416 35006 ft 476 kts 93°
2026-05-05 15:35 36.31146 133.12643 35006 ft 476 kts 93°
2026-05-05 15:35 36.30786 133.20799 35006 ft 477 kts 93°
2026-05-05 15:36 36.30419 133.29005 35006 ft 477 kts 93°
2026-05-05 15:36 36.30049 133.37138 35006 ft 477 kts 93°
2026-05-05 15:37 36.29671 133.45325 35006 ft 477 kts 93°
2026-05-05 15:37 36.29284 133.53549 35007 ft 477 kts 93°
2026-05-05 15:38 36.28893 133.61708 35007 ft 477 kts 93°
2026-05-05 15:38 36.28494 133.69890 35006 ft 477 kts 94°
2026-05-05 15:39 36.28094 133.78101 35006 ft 478 kts 94°
2026-05-05 15:39 36.27695 133.86311 35006 ft 478 kts 94°
2026-05-05 15:40 36.27284 133.94473 35006 ft 478 kts 94°
2026-05-05 15:40 36.26857 134.02707 35006 ft 478 kts 94°
2026-05-05 15:41 36.26433 134.10890 35006 ft 478 kts 94°
2026-05-05 15:41 36.26011 134.19084 35006 ft 478 kts 94°
2026-05-05 15:42 36.25573 134.27274 35006 ft 478 kts 94°
2026-05-05 15:42 36.25129 134.35457 35006 ft 479 kts 94°
2026-05-05 15:43 36.25066 134.43680 35005 ft 479 kts 85°
2026-05-05 15:43 36.26064 134.51837 35005 ft 479 kts 76°
2026-05-05 15:44 36.28101 134.59624 35005 ft 479 kts 66°
2026-05-05 15:44 36.30881 134.66881 35006 ft 479 kts 64°
2026-05-05 15:45 36.33845 134.74281 35006 ft 479 kts 64°
2026-05-05 15:45 36.36782 134.81654 35006 ft 479 kts 64°
2026-05-05 15:46 36.39717 134.89059 35006 ft 479 kts 64°
2026-05-05 15:46 36.42633 134.96440 35006 ft 480 kts 64°
2026-05-05 15:47 36.45568 135.03889 35006 ft 480 kts 64°
2026-05-05 15:47 36.48488 135.11319 35006 ft 480 kts 64°
2026-05-05 15:48 36.51405 135.18758 35006 ft 480 kts 64°
2026-05-05 15:48 36.54316 135.26199 35006 ft 480 kts 64°
2026-05-05 15:49 36.57221 135.33644 35006 ft 480 kts 64°
2026-05-05 15:49 36.60124 135.41100 35006 ft 480 kts 64°
2026-05-05 15:50 36.63029 135.48578 35006 ft 480 kts 64°
2026-05-05 15:50 36.65914 135.56024 35006 ft 481 kts 64°
2026-05-05 15:51 36.68817 135.63531 35006 ft 481 kts 64°
2026-05-05 15:51 36.71710 135.71054 35006 ft 481 kts 64°
2026-05-05 15:52 36.74584 135.78548 35006 ft 481 kts 64°
2026-05-05 15:52 36.77462 135.86057 35006 ft 482 kts 64°
2026-05-05 15:53 36.80332 135.93553 35006 ft 482 kts 64°
2026-05-05 15:53 36.83202 136.01068 35006 ft 482 kts 64°
2026-05-05 15:54 36.86076 136.08609 35006 ft 482 kts 64°
2026-05-05 15:54 36.88947 136.16161 35006 ft 482 kts 64°
2026-05-05 15:55 36.91804 136.23697 35006 ft 482 kts 64°
2026-05-05 15:55 36.94676 136.31290 35006 ft 483 kts 64°
2026-05-05 15:56 36.97530 136.38853 35006 ft 483 kts 64°
2026-05-05 15:56 37.00371 136.46403 35006 ft 483 kts 64°
2026-05-05 15:57 37.03225 136.54007 35006 ft 483 kts 64°
2026-05-05 15:57 37.06065 136.61595 35005 ft 483 kts 64°
2026-05-05 15:58 37.08895 136.69191 35006 ft 483 kts 65°
2026-05-05 15:58 37.11736 136.76790 35006 ft 484 kts 65°
2026-05-05 15:59 37.14596 136.84395 35006 ft 484 kts 65°
2026-05-05 15:59 37.17432 136.92000 35006 ft 484 kts 65°
2026-05-05 16:00 37.20269 136.99654 35006 ft 484 kts 65°
2026-05-05 16:00 37.23093 137.07301 35006 ft 484 kts 65°
2026-05-05 16:01 37.25897 137.14914 35006 ft 484 kts 65°
2026-05-05 16:01 37.28714 137.22584 35006 ft 485 kts 65°
2026-05-05 16:02 37.31530 137.30270 35006 ft 485 kts 65°
2026-05-05 16:02 37.34329 137.37932 35006 ft 485 kts 65°
2026-05-05 16:03 37.37134 137.45628 35006 ft 485 kts 65°
2026-05-05 16:03 37.39938 137.53340 35006 ft 485 kts 65°
2026-05-05 16:04 37.42724 137.61021 35006 ft 485 kts 65°
2026-05-05 16:04 37.45504 137.68718 35006 ft 486 kts 66°
2026-05-05 16:05 37.48279 137.76439 35006 ft 486 kts 65°
2026-05-05 16:05 37.51050 137.84154 35006 ft 486 kts 65°
2026-05-05 16:06 37.53834 137.91914 35006 ft 486 kts 65°
2026-05-05 16:06 37.56603 137.99651 35006 ft 486 kts 65°
2026-05-05 16:07 37.59383 138.07440 35006 ft 486 kts 65°
2026-05-05 16:07 37.62128 138.15152 35006 ft 486 kts 65°
2026-05-05 16:08 37.64903 138.22969 35006 ft 486 kts 65°
2026-05-05 16:08 37.67645 138.30725 35006 ft 486 kts 65°
2026-05-05 16:09 37.70390 138.38509 35006 ft 486 kts 65°
2026-05-05 16:09 37.73142 138.46289 35006 ft 486 kts 65°
2026-05-05 16:10 37.75892 138.54076 35006 ft 486 kts 65°
2026-05-05 16:10 37.78624 138.61856 35006 ft 486 kts 65°
2026-05-05 16:11 37.81339 138.69626 35006 ft 486 kts 66°
2026-05-05 16:12 37.86763 138.85231 35006 ft 486 kts 66°
2026-05-05 16:13 37.93462 139.04822 35005 ft 486 kts 69°
2026-05-05 16:13 37.95540 139.12970 35005 ft 486 kts 75°
2026-05-05 16:14 37.97816 139.29796 35006 ft 486 kts 82°
2026-05-05 16:15 37.99577 139.46742 35006 ft 486 kts 82°
2026-05-05 16:16 38.01340 139.63715 35005 ft 486 kts 82°
2026-05-05 16:17 38.02647 139.76465 35007 ft 486 kts 83°
2026-05-05 16:18 38.03943 139.89185 35007 ft 486 kts 83°
2026-05-05 16:19 38.05223 140.01929 35006 ft 486 kts 83°
2026-05-05 16:19 38.06484 140.14636 35006 ft 486 kts 83°
2026-05-05 16:20 38.08149 140.31654 35006 ft 486 kts 83°
2026-05-05 16:22 38.10194 140.52889 35006 ft 486 kts 82°
2026-05-05 16:23 38.11835 140.69881 35006 ft 486 kts 83°
2026-05-05 16:23 38.13009 140.82651 35005 ft 486 kts 84°
2026-05-05 16:24 38.13387 140.91243 35007 ft 486 kts 90°
2026-05-05 16:25 38.12610 141.04005 35008 ft 486 kts 98°
2026-05-05 16:25 38.11148 141.16772 35007 ft 486 kts 98°
2026-05-05 16:26 38.09206 141.33673 35007 ft 486 kts 98°
2026-05-05 16:27 38.08223 141.42198 35007 ft 487 kts 98°
2026-05-05 16:27 38.07239 141.50671 35007 ft 487 kts 98°
2026-05-05 16:28 38.06251 141.59126 35007 ft 487 kts 98°
2026-05-05 16:28 38.05254 141.67595 35007 ft 487 kts 98°
2026-05-05 16:29 38.04255 141.76056 35006 ft 487 kts 98°
2026-05-05 16:29 38.03248 141.84495 35006 ft 487 kts 99°
2026-05-05 16:30 38.02230 141.92944 35006 ft 487 kts 99°
2026-05-05 16:30 38.01195 142.01454 35006 ft 487 kts 99°
2026-05-05 16:31 38.00174 142.09904 35006 ft 487 kts 98°
2026-05-05 16:31 37.99158 142.18355 35007 ft 487 kts 98°
2026-05-05 16:32 37.98126 142.26805 35007 ft 487 kts 98°
2026-05-05 16:32 37.97082 142.35257 35007 ft 487 kts 98°
2026-05-05 16:33 37.96031 142.43697 35007 ft 487 kts 98°
2026-05-05 16:33 37.94971 142.52145 35007 ft 487 kts 98°
2026-05-05 16:34 37.93906 142.60586 35007 ft 487 kts 98°
2026-05-05 16:34 37.92834 142.69045 35007 ft 487 kts 99°
2026-05-05 16:35 37.91763 142.77449 35006 ft 487 kts 99°
2026-05-05 16:35 37.90683 142.85860 35006 ft 487 kts 99°
2026-05-05 16:36 37.89585 142.94298 35006 ft 487 kts 99°
2026-05-05 16:36 37.88453 143.02763 35006 ft 487 kts 99°
2026-05-05 16:37 37.87342 143.11159 35006 ft 487 kts 99°
2026-05-05 16:37 37.86234 143.19569 35006 ft 487 kts 99°
2026-05-05 16:38 37.85121 143.28005 35006 ft 485 kts 99°
2026-05-05 16:38 37.84021 143.36290 35004 ft 475 kts 99°
2026-05-05 16:39 37.82923 143.44479 35006 ft 472 kts 99°
2026-05-05 16:39 37.81682 143.52626 35005 ft 472 kts 103°
2026-05-05 16:40 37.79821 143.60561 35004 ft 472 kts 109°
2026-05-05 16:40 37.77630 143.68364 35006 ft 472 kts 110°
2026-05-05 16:41 37.75437 143.76147 35006 ft 472 kts 110°
2026-05-05 16:41 37.73243 143.83914 35006 ft 472 kts 110°
2026-05-05 16:42 37.71030 143.91728 35006 ft 472 kts 110°
2026-05-05 16:42 37.68818 143.99513 35006 ft 472 kts 110°
2026-05-05 16:43 37.66604 144.07286 35006 ft 472 kts 110°
2026-05-05 16:43 37.64390 144.15031 35006 ft 472 kts 110°
2026-05-05 16:44 37.62155 144.22832 35006 ft 472 kts 110°
2026-05-05 16:44 37.59925 144.30589 35006 ft 472 kts 110°
2026-05-05 16:45 37.57696 144.38321 35006 ft 472 kts 110°
2026-05-05 16:45 37.55448 144.46097 35006 ft 472 kts 110°
2026-05-05 16:46 37.53212 144.53812 35006 ft 472 kts 110°
2026-05-05 16:46 37.50957 144.61568 35006 ft 472 kts 110°
2026-05-05 16:47 37.48700 144.69318 35006 ft 472 kts 110°
2026-05-05 16:47 37.46447 144.77051 35006 ft 472 kts 110°
2026-05-05 16:48 37.44191 144.84755 35006 ft 472 kts 110°
2026-05-05 16:48 37.41909 144.92517 35006 ft 472 kts 110°
2026-05-05 16:49 37.39643 145.00201 35006 ft 472 kts 110°
2026-05-05 16:49 37.37354 145.07939 35006 ft 472 kts 110°
2026-05-05 16:50 37.35076 145.15617 35006 ft 472 kts 110°
2026-05-05 16:50 37.32779 145.23334 35006 ft 472 kts 110°
2026-05-05 16:51 37.30475 145.31052 35006 ft 472 kts 110°
2026-05-05 16:51 37.28167 145.38757 35006 ft 472 kts 110°
2026-05-05 16:52 37.25865 145.46413 35006 ft 472 kts 110°
2026-05-05 16:52 37.23587 145.54140 35003 ft 472 kts 106°
2026-05-05 16:53 37.22488 145.62172 35004 ft 472 kts 91°
2026-05-05 16:53 37.23128 145.70351 35004 ft 472 kts 76°
2026-05-05 16:54 37.25458 145.78003 35004 ft 472 kts 61°
2026-05-05 16:54 37.28874 145.85007 35006 ft 472 kts 57°
2026-05-05 16:55 37.32370 145.91927 35006 ft 472 kts 58°
2026-05-05 16:55 37.35854 145.98888 35006 ft 472 kts 58°
2026-05-05 16:56 37.39326 146.05873 35006 ft 472 kts 58°
2026-05-05 16:56 37.42786 146.12862 35006 ft 472 kts 58°
2026-05-05 16:57 37.46240 146.19856 35006 ft 472 kts 58°
2026-05-05 16:57 37.49692 146.26865 35006 ft 472 kts 58°
2026-05-05 16:58 37.53145 146.33888 35006 ft 472 kts 58°
2026-05-05 16:58 37.56591 146.40915 35006 ft 472 kts 58°
2026-05-05 16:59 37.60028 146.47935 35006 ft 472 kts 58°
2026-05-05 16:59 37.63461 146.54967 35006 ft 472 kts 58°
2026-05-05 17:00 37.66890 146.62003 35006 ft 472 kts 58°
2026-05-05 17:00 37.70285 146.68996 35006 ft 472 kts 59°
2026-05-05 17:01 37.73710 146.76082 35006 ft 472 kts 58°
2026-05-05 17:01 37.77127 146.83153 35006 ft 472 kts 58°
2026-05-05 17:02 37.80527 146.90195 35006 ft 472 kts 58°
2026-05-05 17:02 37.83934 146.97264 35006 ft 472 kts 58°
2026-05-05 17:03 37.87343 147.04350 35006 ft 472 kts 58°
2026-05-05 17:03 37.90743 147.11435 35006 ft 472 kts 58°
2026-05-05 17:04 37.94136 147.18518 35006 ft 472 kts 58°
2026-05-05 17:04 37.97527 147.25613 35006 ft 472 kts 58°
2026-05-05 17:05 38.00354 147.31538 35006 ft 472 kts 58°
2026-05-05 17:05 38.04285 147.39800 35006 ft 472 kts 58°
2026-05-05 17:06 38.07679 147.46947 35006 ft 472 kts 58°
2026-05-05 17:06 38.11037 147.54027 35006 ft 472 kts 58°
2026-05-05 17:07 38.14437 147.61153 35007 ft 472 kts 58°
2026-05-05 17:07 38.17823 147.68301 35006 ft 472 kts 59°
2026-05-05 17:08 38.21165 147.75418 35006 ft 472 kts 59°
2026-05-05 17:08 38.24529 147.82593 35006 ft 472 kts 59°
2026-05-05 17:09 38.27858 147.89702 35006 ft 472 kts 59°
2026-05-05 17:09 38.31222 147.96899 35006 ft 472 kts 59°
2026-05-05 17:10 38.34559 148.04053 35006 ft 472 kts 59°
2026-05-05 17:10 38.37892 148.11214 35006 ft 472 kts 59°
2026-05-05 17:11 38.41218 148.18375 35006 ft 472 kts 59°
2026-05-05 17:11 38.44562 148.25591 35006 ft 472 kts 59°
2026-05-05 17:12 38.47875 148.32758 35006 ft 472 kts 59°
2026-05-05 17:12 38.51210 148.39987 35006 ft 472 kts 59°
2026-05-05 17:13 38.54517 148.47172 35006 ft 472 kts 59°
2026-05-05 17:13 38.57841 148.54410 35006 ft 472 kts 59°
2026-05-05 17:14 38.61137 148.61606 35006 ft 472 kts 59°
2026-05-05 17:14 38.64441 148.68843 35006 ft 472 kts 60°
2026-05-05 17:15 38.67730 148.76082 35006 ft 472 kts 60°
2026-05-05 17:15 38.71017 148.83318 35006 ft 472 kts 60°
2026-05-05 17:16 38.74299 148.90552 35006 ft 472 kts 60°
2026-05-05 17:16 38.77595 148.97829 35006 ft 472 kts 60°
2026-05-05 17:17 38.80867 149.05070 35006 ft 472 kts 60°
2026-05-05 17:17 38.84156 149.12364 35006 ft 472 kts 60°
2026-05-05 17:18 38.87417 149.19614 35006 ft 472 kts 60°
2026-05-05 17:18 38.90677 149.26877 35006 ft 472 kts 60°
2026-05-05 17:19 38.93937 149.34157 35006 ft 472 kts 60°
2026-05-05 17:19 38.97212 149.41490 35006 ft 472 kts 60°
2026-05-05 17:20 39.00447 149.48752 35006 ft 472 kts 60°
2026-05-05 17:20 39.03697 149.56065 35006 ft 472 kts 60°
2026-05-05 17:21 39.06940 149.63385 35005 ft 472 kts 60°
2026-05-05 17:22 39.11791 149.74368 35006 ft 472 kts 60°
2026-05-05 17:22 39.14774 149.81892 35006 ft 472 kts 66°
2026-05-05 17:23 39.17104 149.89754 35007 ft 472 kts 72°
2026-05-05 17:23 39.18984 149.97813 35006 ft 472 kts 73°
2026-05-05 17:24 39.20835 150.05957 35006 ft 472 kts 73°
2026-05-05 17:24 39.22669 150.14027 35006 ft 472 kts 73°
2026-05-05 17:25 39.24505 150.22111 35006 ft 472 kts 73°
2026-05-05 17:25 39.26341 150.30219 35006 ft 472 kts 73°
2026-05-05 17:26 39.27873 150.37001 35006 ft 472 kts 73°
2026-05-05 17:26 39.29997 150.46439 35006 ft 472 kts 73°
2026-05-05 17:27 39.31816 150.54553 35007 ft 472 kts 73°
2026-05-05 17:27 39.33642 150.62730 35007 ft 472 kts 73°
2026-05-05 17:28 39.35442 150.70831 35006 ft 472 kts 74°
2026-05-05 17:28 39.37244 150.78986 35006 ft 472 kts 74°
2026-05-05 17:29 39.39036 150.87111 35006 ft 472 kts 74°
2026-05-05 17:29 39.40821 150.95226 35006 ft 472 kts 74°
2026-05-05 17:30 39.42615 151.03406 35006 ft 472 kts 74°
2026-05-05 17:30 39.44389 151.11528 35006 ft 472 kts 74°
2026-05-05 17:31 39.46162 151.19672 35006 ft 472 kts 74°
2026-05-05 17:31 39.47940 151.27867 35006 ft 472 kts 74°
2026-05-05 17:32 39.49696 151.35998 35006 ft 472 kts 74°
2026-05-05 17:32 39.51450 151.44144 35006 ft 472 kts 74°
2026-05-05 17:33 39.53208 151.52341 35006 ft 472 kts 74°
2026-05-05 17:33 39.54947 151.60483 35006 ft 472 kts 74°
2026-05-05 17:34 39.56690 151.68677 35006 ft 472 kts 75°
2026-05-05 17:34 39.58416 151.76848 35006 ft 472 kts 75°
2026-05-05 17:35 39.60148 151.85060 35006 ft 472 kts 75°
2026-05-05 17:35 39.61865 151.93230 35006 ft 472 kts 75°
2026-05-05 17:36 39.63588 152.01448 35005 ft 473 kts 75°
2026-05-05 17:36 39.65300 152.09647 35004 ft 475 kts 75°
2026-05-05 17:37 39.67022 152.17920 35004 ft 476 kts 75°
2026-05-05 17:37 39.68744 152.26230 35005 ft 479 kts 75°
2026-05-05 17:38 39.70474 152.34605 35006 ft 483 kts 75°
2026-05-05 17:38 39.72206 152.43019 35006 ft 486 kts 75°
2026-05-05 17:39 39.73937 152.51466 35006 ft 486 kts 75°
2026-05-05 17:39 39.75671 152.59966 35006 ft 486 kts 75°
2026-05-05 17:40 39.77388 152.68431 35006 ft 486 kts 75°
2026-05-05 17:40 39.79102 152.76936 35006 ft 486 kts 75°
2026-05-05 17:41 39.80799 152.85381 35006 ft 486 kts 75°
2026-05-05 17:41 39.82502 152.93877 35006 ft 486 kts 75°
2026-05-05 17:42 39.84206 153.02406 35006 ft 486 kts 75°
2026-05-05 17:42 39.85891 153.10879 35006 ft 486 kts 75°
2026-05-05 17:43 39.87568 153.19345 35006 ft 486 kts 75°
2026-05-05 17:43 39.89249 153.27873 35006 ft 486 kts 75°
2026-05-05 17:44 39.90913 153.36340 35006 ft 486 kts 75°
2026-05-05 17:44 39.92585 153.44888 35006 ft 486 kts 75°
2026-05-05 17:45 39.94239 153.53381 35006 ft 486 kts 75°
2026-05-05 17:45 39.95886 153.61871 35005 ft 486 kts 75°
2026-05-05 17:46 39.97535 153.70424 35006 ft 486 kts 76°
2026-05-05 17:46 39.99159 153.78896 35007 ft 486 kts 76°
2026-05-05 17:47 40.00796 153.87457 35007 ft 486 kts 76°
2026-05-05 17:47 40.02417 153.95964 35006 ft 486 kts 76°
2026-05-05 17:48 40.04035 154.04491 35006 ft 486 kts 76°
2026-05-05 17:48 40.05646 154.13014 35006 ft 486 kts 76°
2026-05-05 17:49 40.07259 154.21588 35006 ft 486 kts 76°
2026-05-05 17:49 40.08856 154.30109 35006 ft 486 kts 76°
2026-05-05 17:50 40.10457 154.38675 35006 ft 486 kts 76°
2026-05-05 17:50 40.12071 154.47194 35007 ft 486 kts 76°
2026-05-05 17:51 40.13675 154.55763 35007 ft 486 kts 76°
2026-05-05 17:51 40.15265 154.64363 35007 ft 486 kts 76°
2026-05-05 17:52 40.16827 154.72897 35006 ft 486 kts 77°
2026-05-05 17:52 40.18391 154.81493 35006 ft 486 kts 77°
2026-05-05 17:53 40.19939 154.90027 35006 ft 486 kts 77°
2026-05-05 17:53 40.21498 154.98656 35006 ft 486 kts 77°
2026-05-05 17:54 40.23042 155.07233 35006 ft 486 kts 77°
2026-05-05 17:54 40.24314 155.14334 35006 ft 486 kts 77°
2026-05-05 17:55 40.26106 155.24376 35006 ft 486 kts 77°
2026-05-05 17:55 40.27629 155.32956 35006 ft 486 kts 77°
2026-05-05 17:56 40.29156 155.41602 35006 ft 486 kts 77°
2026-05-05 17:56 40.30667 155.50189 35007 ft 486 kts 77°
2026-05-05 17:57 40.32172 155.58784 35007 ft 486 kts 77°
2026-05-05 17:57 40.33675 155.67412 35006 ft 486 kts 77°
2026-05-05 17:58 40.35161 155.76018 35006 ft 486 kts 77°
2026-05-05 17:58 40.36647 155.84644 35006 ft 486 kts 77°
2026-05-05 17:59 40.37879 155.91821 35006 ft 486 kts 77°
2026-05-05 17:59 40.39606 156.01921 35006 ft 486 kts 77°
2026-05-05 18:00 40.41077 156.10567 35006 ft 486 kts 77°
2026-05-05 18:00 40.42541 156.19214 35006 ft 487 kts 77°
2026-05-05 18:01 40.43997 156.27853 35006 ft 487 kts 77°
2026-05-05 18:01 40.45448 156.36505 35006 ft 487 kts 77°
2026-05-05 18:02 40.46892 156.45161 35006 ft 487 kts 77°
2026-05-05 18:02 40.48330 156.53821 35006 ft 487 kts 77°
2026-05-05 18:03 40.49759 156.62473 35006 ft 487 kts 77°
2026-05-05 18:03 40.51177 156.71112 35006 ft 487 kts 78°
2026-05-05 18:04 40.52598 156.79828 35006 ft 487 kts 78°
2026-05-05 18:04 40.54001 156.88457 35006 ft 487 kts 78°
2026-05-05 18:05 40.55413 156.97185 35006 ft 487 kts 78°
2026-05-05 18:05 40.56812 157.05865 35006 ft 487 kts 78°
2026-05-05 18:06 40.58205 157.14557 35006 ft 487 kts 78°
2026-05-05 18:06 40.59590 157.23236 35006 ft 487 kts 78°
2026-05-05 18:07 40.60968 157.31921 35006 ft 487 kts 78°
2026-05-05 18:07 40.62342 157.40624 35006 ft 487 kts 78°
2026-05-05 18:08 40.63708 157.49318 35006 ft 487 kts 78°
2026-05-05 18:08 40.65066 157.58014 35006 ft 487 kts 78°
2026-05-05 18:09 40.66415 157.66693 35006 ft 487 kts 78°
2026-05-05 18:09 40.67759 157.75413 35006 ft 487 kts 78°
2026-05-05 18:10 40.68874 157.82680 35006 ft 487 kts 78°
2026-05-05 18:10 40.70429 157.92847 35006 ft 487 kts 78°
2026-05-05 18:11 40.71758 158.01582 35006 ft 487 kts 78°
2026-05-05 18:11 40.73081 158.10324 35006 ft 487 kts 78°
2026-05-05 18:12 40.74390 158.19016 35006 ft 487 kts 78°
2026-05-05 18:12 40.75697 158.27747 35006 ft 487 kts 78°
2026-05-05 18:13 40.76999 158.36493 35006 ft 487 kts 78°
2026-05-05 18:13 40.78294 158.45232 35006 ft 487 kts 78°
2026-05-05 18:14 40.79580 158.53964 35006 ft 487 kts 78°
2026-05-05 18:14 40.80863 158.62726 35006 ft 487 kts 78°
2026-05-05 18:15 40.82138 158.71498 35006 ft 487 kts 79°
2026-05-05 18:15 40.83400 158.80235 35006 ft 487 kts 79°
2026-05-05 18:16 40.84654 158.88953 35006 ft 487 kts 79°
2026-05-05 18:16 40.85909 158.97714 35006 ft 487 kts 79°
2026-05-05 18:17 40.87156 159.06473 35006 ft 487 kts 79°
2026-05-05 18:17 40.88397 159.15239 35006 ft 487 kts 79°
2026-05-05 18:18 40.89633 159.24022 35006 ft 487 kts 79°
2026-05-05 18:18 40.90863 159.32812 35006 ft 486 kts 79°
2026-05-05 18:19 40.92077 159.41540 35006 ft 486 kts 79°
2026-05-05 18:19 40.93290 159.50319 35006 ft 486 kts 79°
2026-05-05 18:20 40.94495 159.59093 35005 ft 486 kts 79°
2026-05-05 18:20 40.95694 159.67882 35006 ft 486 kts 80°
2026-05-05 18:21 40.96686 159.75227 35006 ft 486 kts 80°
2026-05-05 18:21 40.98059 159.85439 35007 ft 486 kts 80°
2026-05-05 18:22 40.99379 159.94208 35007 ft 486 kts 76°
2026-05-05 18:22 41.01313 160.02736 35007 ft 486 kts 70°
2026-05-05 18:23 41.03919 160.10998 35007 ft 486 kts 65°
2026-05-05 18:23 41.06801 160.19037 35006 ft 486 kts 64°
2026-05-05 18:24 41.09705 160.27125 35006 ft 486 kts 64°
2026-05-05 18:24 41.12599 160.35175 35006 ft 486 kts 64°
2026-05-05 18:25 41.15491 160.43247 35007 ft 486 kts 64°
2026-05-05 18:25 41.18382 160.51388 35007 ft 486 kts 64°
2026-05-05 18:26 41.21231 160.59456 35007 ft 486 kts 64°
2026-05-05 18:26 41.24081 160.67563 35006 ft 486 kts 65°
2026-05-05 18:27 41.26918 160.75685 35006 ft 486 kts 65°
2026-05-05 18:27 41.29770 160.83864 35006 ft 486 kts 65°
2026-05-05 18:28 41.34020 160.96072 35006 ft 486 kts 65°
2026-05-05 18:28 41.36836 161.04185 35006 ft 486 kts 65°
2026-05-05 18:29 41.39661 161.12352 35006 ft 486 kts 65°
2026-05-05 18:29 41.42481 161.20525 35006 ft 486 kts 65°
2026-05-05 18:30 41.45298 161.28711 35006 ft 486 kts 65°
2026-05-05 18:30 41.48087 161.36839 35006 ft 486 kts 65°
2026-05-05 18:31 41.50891 161.45038 35006 ft 486 kts 65°
2026-05-05 18:31 41.53692 161.53250 35006 ft 486 kts 65°
2026-05-05 18:32 41.56465 161.61406 35006 ft 486 kts 65°
2026-05-05 18:32 41.59251 161.69636 35006 ft 486 kts 66°
2026-05-05 18:33 41.62007 161.77818 35006 ft 486 kts 66°
2026-05-05 18:33 41.64790 161.86090 35006 ft 486 kts 66°
2026-05-05 18:34 41.67543 161.94290 35006 ft 486 kts 66°
2026-05-05 18:34 41.70309 162.02547 35006 ft 486 kts 66°
2026-05-05 18:35 41.73046 162.10741 35006 ft 486 kts 66°
2026-05-05 18:35 41.75796 162.19000 35006 ft 486 kts 66°
2026-05-05 18:36 41.78543 162.27275 35006 ft 486 kts 66°
2026-05-05 18:36 41.81279 162.35539 35006 ft 486 kts 66°
2026-05-05 18:37 41.84012 162.43820 35006 ft 486 kts 66°
2026-05-05 18:37 41.86721 162.52054 35006 ft 486 kts 66°
2026-05-05 18:38 41.89443 162.60349 35006 ft 486 kts 66°
2026-05-05 18:38 41.92144 162.68617 35006 ft 486 kts 66°
2026-05-05 18:39 41.94854 162.76958 35007 ft 486 kts 66°
2026-05-05 18:39 41.97540 162.85239 35007 ft 486 kts 66°
2026-05-05 18:40 42.00244 162.93590 35006 ft 486 kts 66°
2026-05-05 18:40 42.02918 163.01868 35006 ft 486 kts 66°
2026-05-05 18:41 42.05603 163.10208 35006 ft 486 kts 66°
2026-05-05 18:41 42.08269 163.18512 35006 ft 486 kts 66°
2026-05-05 18:42 42.10942 163.26848 35006 ft 486 kts 66°
2026-05-05 18:42 42.13651 163.35236 35007 ft 486 kts 66°
2026-05-05 18:43 42.16318 163.43565 35007 ft 486 kts 66°
2026-05-05 18:43 42.18972 163.51914 35007 ft 486 kts 66°
2026-05-05 18:44 42.21624 163.60294 35007 ft 486 kts 66°
2026-05-05 18:44 42.24253 163.68643 35006 ft 486 kts 67°
2026-05-05 18:45 42.26875 163.77023 35006 ft 486 kts 67°
2026-05-05 18:45 42.29512 163.85460 35006 ft 486 kts 67°
2026-05-05 18:46 42.32121 163.93825 35006 ft 486 kts 67°
2026-05-05 18:46 42.34738 164.02239 35006 ft 486 kts 67°
2026-05-05 18:47 42.37348 164.10654 35006 ft 486 kts 67°
2026-05-05 18:47 42.39953 164.19081 35006 ft 486 kts 67°
2026-05-05 18:48 42.42533 164.27454 35006 ft 486 kts 67°
2026-05-05 18:48 42.45124 164.35886 35006 ft 486 kts 67°
2026-05-05 18:49 42.47710 164.44330 35006 ft 486 kts 67°
2026-05-05 18:49 42.50292 164.52788 35006 ft 486 kts 67°
2026-05-05 18:50 42.52864 164.61243 35006 ft 486 kts 67°
2026-05-05 18:50 42.55424 164.69694 35006 ft 486 kts 68°
2026-05-05 18:51 42.57976 164.78169 35006 ft 486 kts 68°
2026-05-05 18:51 42.60532 164.86665 35006 ft 486 kts 68°
2026-05-05 18:52 42.63071 164.95126 35006 ft 486 kts 68°
2026-05-05 18:52 42.65617 165.03635 35006 ft 486 kts 68°
2026-05-05 18:53 42.68153 165.12137 35006 ft 486 kts 68°
2026-05-05 18:53 42.70667 165.20592 35006 ft 486 kts 68°
2026-05-05 18:54 42.73195 165.29120 35006 ft 487 kts 68°
2026-05-05 18:54 42.75715 165.37651 35006 ft 487 kts 68°
2026-05-05 18:55 42.78227 165.46184 35006 ft 487 kts 68°
2026-05-05 18:55 42.80717 165.54669 35006 ft 487 kts 68°
2026-05-05 18:56 42.83220 165.63228 35006 ft 487 kts 68°
2026-05-05 18:56 42.85709 165.71783 35006 ft 487 kts 69°
2026-05-05 18:57 42.88192 165.80357 35006 ft 487 kts 68°
2026-05-05 18:57 42.90661 165.88899 35006 ft 487 kts 68°
2026-05-05 18:58 42.93128 165.97452 35006 ft 487 kts 68°
2026-05-05 18:58 42.95590 166.06015 35006 ft 487 kts 68°
2026-05-05 18:59 42.98062 166.14642 35006 ft 487 kts 68°
2026-05-05 18:59 43.00510 166.23213 35006 ft 487 kts 68°
2026-05-05 19:00 43.02551 166.30380 35006 ft 487 kts 68°
2026-05-05 19:00 43.05387 166.40376 35006 ft 487 kts 68°
2026-05-05 19:01 43.07832 166.49026 35005 ft 487 kts 68°
2026-05-05 19:01 43.10249 166.57603 35005 ft 487 kts 68°
2026-05-05 19:02 43.12689 166.66193 35007 ft 487 kts 69°
2026-05-05 19:02 43.15122 166.74840 35006 ft 487 kts 69°
2026-05-05 19:03 43.17538 166.83498 35006 ft 487 kts 69°
2026-05-05 19:03 43.19935 166.92123 35006 ft 487 kts 69°
2026-05-05 19:04 43.22333 167.00786 35006 ft 487 kts 69°
2026-05-05 19:04 43.24707 167.09390 35006 ft 487 kts 69°
2026-05-05 19:05 43.27094 167.18072 35006 ft 487 kts 69°
2026-05-05 19:05 43.29463 167.26720 35006 ft 487 kts 69°
2026-05-05 19:06 43.31836 167.35413 35006 ft 487 kts 69°
2026-05-05 19:06 43.34200 167.44104 35006 ft 487 kts 69°
2026-05-05 19:07 43.36154 167.51311 35006 ft 487 kts 69°
2026-05-05 19:07 43.38909 167.61511 35006 ft 487 kts 69°
2026-05-05 19:08 43.41237 167.70174 35006 ft 487 kts 70°
2026-05-05 19:08 43.43567 167.78894 35006 ft 487 kts 70°
2026-05-05 19:09 43.45895 167.87620 35006 ft 487 kts 70°
2026-05-05 19:09 43.48219 167.96356 35006 ft 487 kts 70°
2026-05-05 19:10 43.50532 168.05078 35006 ft 487 kts 70°
2026-05-05 19:10 43.52846 168.13838 35006 ft 487 kts 70°
2026-05-05 19:11 43.55137 168.22537 35006 ft 487 kts 70°
2026-05-05 19:11 43.57437 168.31305 35006 ft 487 kts 70°
2026-05-05 19:12 43.59729 168.40073 35006 ft 487 kts 70°
2026-05-05 19:12 43.62016 168.48854 35006 ft 487 kts 70°
2026-05-05 19:13 43.64281 168.57587 35006 ft 486 kts 70°
2026-05-05 19:13 43.66552 168.66373 35006 ft 486 kts 70°
2026-05-05 19:14 43.68799 168.75128 35006 ft 486 kts 70°
2026-05-05 19:14 43.71044 168.83899 35006 ft 486 kts 70°
2026-05-05 19:15 43.73300 168.92734 35006 ft 486 kts 70°
2026-05-05 19:15 43.75529 169.01491 35006 ft 486 kts 70°
2026-05-05 19:16 43.77763 169.10297 35006 ft 486 kts 70°
2026-05-05 19:16 43.79991 169.19118 35006 ft 486 kts 70°
2026-05-05 19:17 43.82214 169.27948 35006 ft 486 kts 70°
2026-05-05 19:17 43.84414 169.36719 35006 ft 486 kts 70°
2026-05-05 19:18 43.86621 169.45560 35006 ft 486 kts 70°
2026-05-05 19:18 43.88822 169.54405 35006 ft 486 kts 70°
2026-05-05 19:19 43.91014 169.63257 35005 ft 486 kts 70°
2026-05-05 19:19 43.93192 169.72105 35006 ft 486 kts 71°
2026-05-05 19:20 43.95360 169.80957 35007 ft 486 kts 71°
2026-05-05 19:20 43.97531 169.89842 35006 ft 486 kts 71°
2026-05-05 19:21 43.99775 169.98628 35007 ft 486 kts 68°
2026-05-05 19:21 44.02581 170.07173 35008 ft 486 kts 63°
2026-05-05 19:22 44.05087 170.14108 35006 ft 486 kts 63°
2026-05-05 19:22 44.08637 170.23933 35006 ft 486 kts 63°
2026-05-05 19:23 44.11655 170.32314 35006 ft 486 kts 63°
2026-05-05 19:23 44.14673 170.40678 35007 ft 486 kts 63°
2026-05-05 19:24 44.17687 170.49104 35007 ft 486 kts 63°
2026-05-05 19:24 44.20663 170.57480 35007 ft 486 kts 63°
2026-05-05 19:25 44.23161 170.64537 35007 ft 486 kts 63°
2026-05-05 19:25 44.26611 170.74353 35006 ft 486 kts 64°
2026-05-05 19:26 44.29577 170.82814 35006 ft 486 kts 64°
2026-05-05 19:26 44.32545 170.91298 35006 ft 486 kts 64°
2026-05-05 19:27 44.35493 170.99744 35006 ft 486 kts 64°
2026-05-05 19:27 44.38451 171.08243 35006 ft 486 kts 64°
2026-05-05 19:28 44.40897 171.15289 35006 ft 486 kts 64°
2026-05-05 19:28 44.44323 171.25191 35006 ft 486 kts 64°
2026-05-05 19:29 44.47256 171.33694 35006 ft 486 kts 64°
2026-05-05 19:29 44.50183 171.42210 35006 ft 486 kts 64°
2026-05-05 19:30 44.53107 171.50742 35006 ft 486 kts 64°
2026-05-05 19:30 44.56021 171.59274 35006 ft 486 kts 64°
2026-05-05 19:31 44.58926 171.67809 35006 ft 486 kts 65°
2026-05-05 19:31 44.61796 171.76297 35006 ft 486 kts 65°
2026-05-05 19:32 44.64700 171.84900 35006 ft 486 kts 65°
2026-05-05 19:32 44.67569 171.93414 35006 ft 486 kts 64°
2026-05-05 19:33 44.70454 172.01997 35006 ft 486 kts 64°
2026-05-05 19:33 44.73334 172.10596 35006 ft 486 kts 64°
2026-05-05 19:34 44.76192 172.19151 35006 ft 486 kts 64°
2026-05-05 19:35 44.80480 172.32044 35006 ft 486 kts 64°
2026-05-05 19:35 44.83339 172.40672 35006 ft 486 kts 64°
2026-05-05 19:36 44.86195 172.49321 35006 ft 486 kts 64°
2026-05-05 19:36 44.89018 172.57898 35006 ft 486 kts 64°
2026-05-05 19:37 44.91378 172.65088 35005 ft 486 kts 65°
2026-05-05 19:37 44.94211 172.73775 35006 ft 486 kts 65°
2026-05-05 19:38 44.97496 172.83879 35007 ft 486 kts 65°
2026-05-05 19:38 45.00297 172.92509 35006 ft 486 kts 65°
2026-05-05 19:39 45.03109 173.01198 35006 ft 486 kts 65°
2026-05-05 19:39 45.05895 173.09831 35006 ft 486 kts 65°
2026-05-05 19:40 45.08694 173.18535 35006 ft 486 kts 65°
2026-05-05 19:40 45.11489 173.27222 35006 ft 486 kts 65°
2026-05-05 19:41 45.14293 173.35904 35007 ft 486 kts 65°
2026-05-05 19:41 45.17088 173.44634 35007 ft 486 kts 65°
2026-05-05 19:42 45.19864 173.53360 35007 ft 486 kts 65°
2026-05-05 19:42 45.22611 173.62042 35007 ft 486 kts 65°
2026-05-05 19:43 45.25368 173.70805 35006 ft 486 kts 66°
2026-05-05 19:43 45.28109 173.79559 35006 ft 486 kts 66°
2026-05-05 19:44 45.30831 173.88268 35006 ft 486 kts 66°
2026-05-05 19:44 45.33578 173.97076 35006 ft 486 kts 66°
2026-05-05 19:45 45.36294 174.05814 35006 ft 486 kts 66°
2026-05-05 19:45 45.39021 174.14613 35006 ft 486 kts 66°
2026-05-05 19:46 45.41737 174.23410 35006 ft 486 kts 66°
2026-05-05 19:46 45.44443 174.32205 35006 ft 486 kts 66°
2026-05-05 19:47 45.47144 174.41011 35006 ft 486 kts 66°
2026-05-05 19:47 45.49836 174.49815 35006 ft 486 kts 66°
2026-05-05 19:48 45.52519 174.58627 35006 ft 486 kts 66°
2026-05-05 19:48 45.55201 174.67468 35006 ft 486 kts 67°
2026-05-05 19:49 45.57856 174.76277 35006 ft 486 kts 67°
2026-05-05 19:49 45.60523 174.85147 35006 ft 486 kts 67°
2026-05-05 19:50 45.63180 174.94000 35006 ft 486 kts 67°
2026-05-05 19:50 45.65830 175.02858 35006 ft 486 kts 67°
2026-05-05 19:51 45.68472 175.11720 35006 ft 486 kts 67°
2026-05-05 19:51 45.71112 175.20605 35006 ft 486 kts 66°
2026-05-05 19:52 45.73745 175.29498 35006 ft 487 kts 66°
2026-05-05 19:52 45.76371 175.38397 35006 ft 487 kts 66°
2026-05-05 19:53 45.78989 175.47304 35006 ft 487 kts 66°
2026-05-05 19:53 45.81599 175.56212 35006 ft 487 kts 66°
2026-05-05 19:54 45.84204 175.65134 35006 ft 487 kts 67°
2026-05-05 19:54 45.86802 175.74097 35006 ft 487 kts 68°
2026-05-05 19:55 45.89381 175.83019 35006 ft 487 kts 68°
2026-05-05 19:55 45.91960 175.91960 35006 ft 487 kts 68°
2026-05-05 19:56 45.94540 176.00929 35006 ft 487 kts 68°
2026-05-05 19:56 45.97112 176.09904 35006 ft 487 kts 68°
2026-05-05 19:57 45.99679 176.18893 35006 ft 487 kts 68°
2026-05-05 19:57 46.02235 176.27879 35006 ft 487 kts 68°
2026-05-05 19:58 46.04781 176.36861 35006 ft 487 kts 68°
2026-05-05 19:58 46.07325 176.45866 35005 ft 487 kts 68°
2026-05-05 19:59 46.09863 176.54886 35005 ft 487 kts 68°
2026-05-05 19:59 46.12398 176.63838 35007 ft 487 kts 67°
2026-05-05 20:00 46.14940 176.72875 35006 ft 487 kts 68°
2026-05-05 20:00 46.17466 176.81940 35006 ft 487 kts 68°
2026-05-05 20:01 46.19964 176.90951 35006 ft 487 kts 68°
2026-05-05 20:01 46.22465 177.00008 35006 ft 487 kts 68°
2026-05-05 20:02 46.24963 177.09087 35006 ft 487 kts 68°
2026-05-05 20:02 46.27449 177.18156 35006 ft 487 kts 68°
2026-05-05 20:03 46.29926 177.27229 35006 ft 487 kts 68°
2026-05-05 20:03 46.32393 177.36298 35006 ft 487 kts 68°
2026-05-05 20:04 46.34855 177.45380 35006 ft 487 kts 68°
2026-05-05 20:04 46.37309 177.54471 35006 ft 487 kts 68°
2026-05-05 20:05 46.39757 177.63577 35006 ft 487 kts 68°
2026-05-05 20:05 46.42190 177.72679 35006 ft 487 kts 69°
2026-05-05 20:06 46.44617 177.81802 35006 ft 487 kts 69°
2026-05-05 20:06 46.47046 177.90951 35006 ft 487 kts 69°
2026-05-05 20:07 46.49466 178.00092 35006 ft 487 kts 69°
2026-05-05 20:07 46.51881 178.09253 35006 ft 487 kts 69°
2026-05-05 20:08 46.54284 178.18399 35006 ft 487 kts 69°
2026-05-05 20:08 46.56679 178.27550 35006 ft 487 kts 69°
2026-05-05 20:09 46.59067 178.36714 35006 ft 487 kts 69°
2026-05-05 20:09 46.61453 178.45901 35006 ft 487 kts 69°
2026-05-05 20:10 46.63834 178.55112 35006 ft 487 kts 69°
2026-05-05 20:10 46.66206 178.64320 35006 ft 487 kts 69°
2026-05-05 20:11 46.68556 178.73503 35006 ft 487 kts 70°
2026-05-05 20:11 46.70914 178.82761 35006 ft 487 kts 70°
2026-05-05 20:12 46.73250 178.91950 35006 ft 487 kts 70°
2026-05-05 20:12 46.75590 179.01184 35006 ft 487 kts 70°
2026-05-05 20:13 46.77924 179.10432 35006 ft 486 kts 70°
2026-05-05 20:13 46.80250 179.19688 35006 ft 486 kts 70°
2026-05-05 20:14 46.82565 179.28937 35006 ft 486 kts 70°
2026-05-05 20:14 46.84481 179.36623 35006 ft 486 kts 70°
2026-05-05 20:15 46.86781 179.45883 35006 ft 486 kts 70°
2026-05-05 20:15 46.89454 179.56697 35006 ft 486 kts 70°
2026-05-05 20:16 46.91735 179.65970 35005 ft 486 kts 70°
2026-05-05 20:16 46.94004 179.75267 35006 ft 486 kts 70°
2026-05-05 20:17 46.96275 179.84605 35007 ft 486 kts 70°
2026-05-05 20:17 46.98538 179.93919 35006 ft 486 kts 70°
2026-05-05 20:18 47.01154 -179.96983 35007 ft 486 kts 64°
2026-05-05 20:18 47.04267 -179.88205 35007 ft 486 kts 62°
2026-05-05 20:19 47.07425 -179.79521 35006 ft 486 kts 62°
2026-05-05 20:19 47.10589 -179.70775 35006 ft 486 kts 62°
2026-05-05 20:20 47.13773 -179.62003 35007 ft 486 kts 62°
2026-05-05 20:20 47.16917 -179.53275 35007 ft 486 kts 62°
2026-05-05 20:21 47.20061 -179.44466 35006 ft 486 kts 63°
2026-05-05 20:21 47.23170 -179.35692 35006 ft 486 kts 63°
2026-05-05 20:22 47.26282 -179.26892 35006 ft 486 kts 63°
2026-05-05 20:22 47.29393 -179.18074 35006 ft 486 kts 63°
2026-05-05 20:23 47.32498 -179.09244 35006 ft 486 kts 63°
2026-05-05 20:23 47.35595 -179.00409 35006 ft 486 kts 63°
2026-05-05 20:24 47.38688 -178.91557 35006 ft 487 kts 63°
2026-05-05 20:24 47.41776 -178.82689 35006 ft 487 kts 63°
2026-05-05 20:25 47.44853 -178.73824 35006 ft 487 kts 63°
2026-05-05 20:25 47.47923 -178.64947 35006 ft 487 kts 63°
2026-05-05 20:26 47.50990 -178.56052 35006 ft 487 kts 63°
2026-05-05 20:26 47.53528 -178.48659 35006 ft 487 kts 63°
2026-05-05 20:27 47.57069 -178.38284 35006 ft 487 kts 63°
2026-05-05 20:27 47.60126 -178.29308 35006 ft 487 kts 63°
2026-05-05 20:28 47.63145 -178.20422 35006 ft 487 kts 63°
2026-05-05 20:28 47.66183 -178.11453 35006 ft 487 kts 63°
2026-05-05 20:29 47.69210 -178.02489 35006 ft 487 kts 63°
2026-05-05 20:29 47.72208 -177.93578 35006 ft 487 kts 63°
2026-05-05 20:30 47.75224 -177.84582 35006 ft 487 kts 63°
2026-05-05 20:30 47.78233 -177.75578 35006 ft 487 kts 63°
2026-05-05 20:31 47.81218 -177.66614 35006 ft 487 kts 63°
2026-05-05 20:31 47.84211 -177.57594 35006 ft 487 kts 63°
2026-05-05 20:32 47.87196 -177.48566 35006 ft 487 kts 63°
2026-05-05 20:32 47.90154 -177.39589 35006 ft 487 kts 63°
2026-05-05 20:33 47.93115 -177.30563 35006 ft 487 kts 64°
2026-05-05 20:33 47.96081 -177.21466 35007 ft 487 kts 64°
2026-05-05 20:34 47.99017 -177.12447 35007 ft 487 kts 64°
2026-05-05 20:34 48.01968 -177.03354 35006 ft 487 kts 64°
2026-05-05 20:35 48.04896 -176.94307 35006 ft 487 kts 64°
2026-05-05 20:35 48.07835 -176.85194 35006 ft 487 kts 64°
2026-05-05 20:36 48.10753 -176.76125 35006 ft 487 kts 64°
2026-05-05 20:36 48.13698 -176.67026 35006 ft 487 kts 64°
2026-05-05 20:37 48.16622 -176.57925 35007 ft 487 kts 64°
2026-05-05 20:37 48.19057 -176.50288 35007 ft 487 kts 64°
2026-05-05 20:38 48.22441 -176.39619 35007 ft 487 kts 64°
2026-05-05 20:38 48.25316 -176.30502 35006 ft 487 kts 65°
2026-05-05 20:39 48.28184 -176.21350 35006 ft 487 kts 65°
2026-05-05 20:39 48.31068 -176.12131 35006 ft 487 kts 65°
2026-05-05 20:40 48.33453 -176.04491 35006 ft 487 kts 65°
2026-05-05 20:40 48.36789 -175.93765 35006 ft 487 kts 65°
2026-05-05 20:41 48.39627 -175.84607 35006 ft 487 kts 65°
2026-05-05 20:41 48.42482 -175.75359 35006 ft 487 kts 65°
2026-05-05 20:42 48.45305 -175.66182 35006 ft 486 kts 65°
2026-05-05 20:42 48.48143 -175.56923 35006 ft 486 kts 65°
2026-05-05 20:43 48.50969 -175.47664 35006 ft 486 kts 65°
2026-05-05 20:43 48.53768 -175.38464 35006 ft 486 kts 65°
2026-05-05 20:44 48.56576 -175.29184 35006 ft 486 kts 65°
2026-05-05 20:44 48.59363 -175.19925 35006 ft 486 kts 65°
2026-05-05 20:45 48.63541 -175.06001 35006 ft 486 kts 65°
2026-05-05 20:45 48.66331 -174.96670 35006 ft 486 kts 65°
2026-05-05 20:46 48.69090 -174.87410 35006 ft 486 kts 65°
2026-05-05 20:46 48.71859 -174.78081 35006 ft 486 kts 65°
2026-05-05 20:47 48.74153 -174.70323 35006 ft 486 kts 65°
2026-05-05 20:47 48.77361 -174.59438 35006 ft 486 kts 65°
2026-05-05 20:48 48.80111 -174.50064 35006 ft 486 kts 65°
2026-05-05 20:48 48.82832 -174.40755 35006 ft 486 kts 65°
2026-05-05 20:49 48.85566 -174.31360 35006 ft 486 kts 66°
2026-05-05 20:49 48.88275 -174.21988 35006 ft 486 kts 66°
2026-05-05 20:50 48.90539 -174.14139 35006 ft 486 kts 66°
2026-05-05 20:50 48.93697 -174.03160 35006 ft 486 kts 66°
2026-05-05 20:51 48.96385 -173.93780 35006 ft 486 kts 66°
2026-05-05 20:51 48.99079 -173.84343 35006 ft 486 kts 66°
2026-05-05 20:52 49.01746 -173.74966 35006 ft 486 kts 66°
2026-05-05 20:52 49.04421 -173.65526 35006 ft 486 kts 66°
2026-05-05 20:53 49.07092 -173.56059 35006 ft 486 kts 66°
2026-05-05 20:53 49.09758 -173.46573 35005 ft 486 kts 66°
2026-05-05 20:54 49.12413 -173.37172 35007 ft 486 kts 66°
2026-05-05 20:54 49.15084 -173.27666 35006 ft 486 kts 67°
2026-05-05 20:55 49.17285 -173.19748 35006 ft 486 kts 67°
2026-05-05 20:55 49.20348 -173.08682 35006 ft 486 kts 67°
2026-05-05 20:56 49.22973 -172.99150 35006 ft 486 kts 67°
2026-05-05 20:56 49.25567 -172.89694 35006 ft 486 kts 67°
2026-05-05 20:57 49.28173 -172.80156 35006 ft 486 kts 67°
2026-05-05 20:57 49.30773 -172.70604 35006 ft 487 kts 67°
2026-05-05 20:58 49.33363 -172.61046 35006 ft 487 kts 67°
2026-05-05 20:58 49.35942 -172.51494 35006 ft 487 kts 67°
2026-05-05 20:59 49.38512 -172.41931 35006 ft 487 kts 67°
2026-05-05 20:59 49.41088 -172.32306 35006 ft 487 kts 68°
2026-05-05 21:00 49.43629 -172.22743 35006 ft 487 kts 68°
2026-05-05 21:00 49.46168 -172.13162 35006 ft 487 kts 68°
2026-05-05 21:01 49.48708 -172.03546 35006 ft 487 kts 68°
2026-05-05 21:01 49.51240 -171.93929 35006 ft 487 kts 68°
2026-05-05 21:02 49.53768 -171.84286 35006 ft 487 kts 68°
2026-05-05 21:02 49.56283 -171.74652 35006 ft 487 kts 68°
2026-05-05 21:03 49.58792 -171.64998 35006 ft 487 kts 68°
2026-05-05 21:03 49.61289 -171.55354 35006 ft 487 kts 68°
2026-05-05 21:04 49.63788 -171.45660 35006 ft 487 kts 68°
2026-05-05 21:04 49.66279 -171.35954 35006 ft 487 kts 68°
2026-05-05 21:05 49.68343 -171.27866 35006 ft 487 kts 69°
2026-05-05 21:05 49.71215 -171.16550 35006 ft 487 kts 69°
2026-05-05 21:06 49.73674 -171.06834 35006 ft 487 kts 69°
2026-05-05 21:06 49.75710 -170.98767 35006 ft 487 kts 69°
2026-05-05 21:07 49.78566 -170.87398 35006 ft 487 kts 69°
2026-05-05 21:07 49.80989 -170.77708 35006 ft 487 kts 69°
2026-05-05 21:08 49.83422 -170.67932 35006 ft 487 kts 69°
2026-05-05 21:08 49.85849 -170.58139 35006 ft 487 kts 69°
2026-05-05 21:09 49.88247 -170.48413 35006 ft 487 kts 69°
2026-05-05 21:09 49.90659 -170.38590 35005 ft 487 kts 69°
2026-05-05 21:10 49.93048 -170.28790 35006 ft 487 kts 69°
2026-05-05 21:10 49.95422 -170.18990 35007 ft 487 kts 69°
2026-05-05 21:11 49.97788 -170.09204 35006 ft 487 kts 69°
2026-05-05 21:11 50.00385 -169.99493 35007 ft 487 kts 64°
2026-05-05 21:12 50.03536 -169.90259 35007 ft 487 kts 60°
2026-05-05 21:12 50.06876 -169.81107 35006 ft 487 kts 60°
2026-05-05 21:13 50.10197 -169.71977 35006 ft 487 kts 60°
2026-05-05 21:13 50.13520 -169.62856 35006 ft 487 kts 60°
2026-05-05 21:14 50.16832 -169.53702 35007 ft 487 kts 60°
2026-05-05 21:14 50.20149 -169.44463 35007 ft 487 kts 60°
2026-05-05 21:15 50.23417 -169.35304 35007 ft 487 kts 60°
2026-05-05 21:15 50.26687 -169.26079 35006 ft 487 kts 61°
2026-05-05 21:16 50.29951 -169.16835 35006 ft 486 kts 61°
2026-05-05 21:16 50.33206 -169.07596 35006 ft 486 kts 61°
2026-05-05 21:17 50.36467 -168.98315 35006 ft 486 kts 61°
2026-05-05 21:17 50.39700 -168.89081 35006 ft 486 kts 61°
2026-05-05 21:18 50.42945 -168.79781 35006 ft 486 kts 61°
2026-05-05 21:18 50.46161 -168.70529 35006 ft 486 kts 61°
2026-05-05 21:19 50.49396 -168.61191 35006 ft 486 kts 61°
2026-05-05 21:19 50.52597 -168.51914 35006 ft 486 kts 61°
2026-05-05 21:20 50.55821 -168.42537 35006 ft 486 kts 61°
2026-05-05 21:20 50.59012 -168.33221 35006 ft 486 kts 62°
2026-05-05 21:21 50.61668 -168.25418 35006 ft 486 kts 62°
2026-05-05 21:21 50.65367 -168.14514 35006 ft 486 kts 62°
2026-05-05 21:22 50.68534 -168.05159 35006 ft 486 kts 62°
2026-05-05 21:22 50.71169 -167.97353 35006 ft 486 kts 62°
2026-05-05 21:23 50.74866 -167.86362 35006 ft 486 kts 62°
2026-05-05 21:23 50.78007 -167.76984 35006 ft 486 kts 62°
2026-05-05 21:24 50.81170 -167.67508 35006 ft 486 kts 62°
2026-05-05 21:24 50.84299 -167.58098 35006 ft 486 kts 62°
2026-05-05 21:25 50.87420 -167.48675 35006 ft 486 kts 62°
2026-05-05 21:25 50.90553 -167.39183 35005 ft 486 kts 62°
2026-05-05 21:26 50.93655 -167.29735 35006 ft 486 kts 63°
2026-05-05 21:26 50.96250 -167.21790 35007 ft 486 kts 63°
2026-05-05 21:27 50.99344 -167.12294 35007 ft 486 kts 63°
2026-05-05 21:27 51.02944 -167.01215 35006 ft 486 kts 63°
2026-05-05 21:28 51.06021 -166.91708 35006 ft 486 kts 63°
2026-05-05 21:28 51.09111 -166.82124 35006 ft 486 kts 63°
2026-05-05 21:29 51.12118 -166.72815 35006 ft 486 kts 62°
2026-05-05 21:29 51.15201 -166.63274 35007 ft 486 kts 62°
2026-05-05 21:30 51.18261 -166.53717 35007 ft 486 kts 63°
2026-05-05 21:30 51.21318 -166.44107 35007 ft 486 kts 63°
2026-05-05 21:31 51.24352 -166.34521 35007 ft 486 kts 63°
2026-05-05 21:31 51.27369 -166.24919 35006 ft 486 kts 63°
2026-05-05 21:32 51.29888 -166.16875 35006 ft 486 kts 63°
2026-05-05 21:32 51.32892 -166.07265 35006 ft 486 kts 63°
2026-05-05 21:33 51.35898 -165.97613 35006 ft 486 kts 63°
2026-05-05 21:33 51.39410 -165.86295 35006 ft 486 kts 63°
2026-05-05 21:34 51.42400 -165.76616 35006 ft 486 kts 63°
2026-05-05 21:34 51.44869 -165.68594 35006 ft 486 kts 63°
2026-05-05 21:35 51.48360 -165.57210 35006 ft 486 kts 63°
2026-05-05 21:35 51.50819 -165.49156 35006 ft 486 kts 63°
2026-05-05 21:36 51.53781 -165.39424 35006 ft 486 kts 63°
2026-05-05 21:36 51.56723 -165.29706 35006 ft 486 kts 64°
2026-05-05 21:37 51.59673 -165.19899 35006 ft 486 kts 64°
2026-05-05 21:37 51.63086 -165.08524 35006 ft 486 kts 64°
2026-05-05 21:38 51.65517 -165.00400 35006 ft 486 kts 64°
2026-05-05 21:38 51.68922 -164.88972 35006 ft 486 kts 64°
2026-05-05 21:39 51.71835 -164.79155 35006 ft 486 kts 64°
2026-05-05 21:39 51.74266 -164.70934 35006 ft 486 kts 64°
2026-05-05 21:40 51.77146 -164.61156 35006 ft 486 kts 64°
2026-05-05 21:40 51.80512 -164.49675 35006 ft 486 kts 64°
2026-05-05 21:41 51.83395 -164.39800 35006 ft 486 kts 64°
2026-05-05 21:41 51.85789 -164.31564 35006 ft 486 kts 65°
2026-05-05 21:42 51.89120 -164.20024 35006 ft 486 kts 65°
2026-05-05 21:42 51.91959 -164.10162 35006 ft 486 kts 65°
2026-05-05 21:43 51.94809 -164.00230 35006 ft 486 kts 65°
2026-05-05 21:43 51.97651 -163.90286 35006 ft 486 kts 65°
2026-05-05 21:44 52.00467 -163.80392 35006 ft 486 kts 65°
2026-05-05 21:44 52.03289 -163.70439 35006 ft 486 kts 65°
2026-05-05 21:45 52.06104 -163.60466 35006 ft 486 kts 65°
2026-05-05 21:45 52.08894 -163.50542 35005 ft 486 kts 65°
2026-05-05 21:46 52.11245 -163.42171 35006 ft 486 kts 65°
2026-05-05 21:46 52.14519 -163.30543 35006 ft 486 kts 66°
2026-05-05 21:47 52.17291 -163.20575 35006 ft 486 kts 66°
2026-05-05 21:47 52.20068 -163.10524 35006 ft 486 kts 66°
2026-05-05 21:48 52.22832 -163.00476 35006 ft 486 kts 66°
2026-05-05 21:48 52.25572 -162.90472 35006 ft 486 kts 66°
2026-05-05 21:49 52.28319 -162.80397 35006 ft 486 kts 66°
2026-05-05 21:49 52.31062 -162.70300 35006 ft 486 kts 66°
2026-05-05 21:50 52.33774 -162.60268 35006 ft 486 kts 66°
2026-05-05 21:50 52.36495 -162.50157 35006 ft 486 kts 66°
2026-05-05 21:51 52.39208 -162.40034 35006 ft 486 kts 66°
2026-05-05 21:51 52.41907 -162.29907 35006 ft 486 kts 66°
2026-05-05 21:52 52.45935 -162.14687 35006 ft 486 kts 66°
2026-05-05 21:53 52.48610 -162.04541 35006 ft 486 kts 66°
2026-05-05 21:53 52.51274 -161.94395 35006 ft 486 kts 66°
2026-05-05 21:54 52.53490 -161.85922 35006 ft 486 kts 66°
2026-05-05 21:54 52.56586 -161.74034 35006 ft 486 kts 66°
2026-05-05 21:55 52.59239 -161.63797 35006 ft 486 kts 66°
2026-05-05 21:55 52.61865 -161.53618 35006 ft 486 kts 66°
2026-05-05 21:56 52.64500 -161.43355 35006 ft 486 kts 66°
2026-05-05 21:56 52.67107 -161.33157 35006 ft 486 kts 67°
2026-05-05 21:57 52.69275 -161.24614 35006 ft 486 kts 67°
2026-05-05 21:57 52.71882 -161.14307 35006 ft 486 kts 67°
2026-05-05 21:58 52.74902 -161.02322 35006 ft 486 kts 67°
2026-05-05 21:58 52.77054 -160.93747 35006 ft 486 kts 67°
2026-05-05 21:59 52.79614 -160.83504 35006 ft 486 kts 67°
2026-05-05 21:59 52.82612 -160.71445 35006 ft 486 kts 67°
2026-05-05 22:00 52.85157 -160.61154 35006 ft 486 kts 67°
2026-05-05 22:00 52.87709 -160.50787 35006 ft 486 kts 67°
2026-05-05 22:01 52.90250 -160.40408 35005 ft 486 kts 67°
2026-05-05 22:01 52.92768 -160.30061 35006 ft 486 kts 68°
2026-05-05 22:02 52.95271 -160.19691 35007 ft 486 kts 68°
2026-05-05 22:02 52.97776 -160.09297 35006 ft 486 kts 68°
2026-05-05 22:03 53.00541 -159.99091 35007 ft 486 kts 63°
2026-05-05 22:03 53.03886 -159.89339 35007 ft 486 kts 58°
2026-05-05 22:04 53.07399 -159.79744 35006 ft 486 kts 58°
2026-05-05 22:04 53.10807 -159.70407 35006 ft 486 kts 58°
2026-05-05 22:05 53.13728 -159.62421 35007 ft 486 kts 58°
2026-05-05 22:05 53.17215 -159.52814 35007 ft 486 kts 58°
2026-05-05 22:06 53.21276 -159.41528 35007 ft 486 kts 58°
2026-05-05 22:06 53.24729 -159.31865 35006 ft 486 kts 59°
2026-05-05 22:07 53.28154 -159.22212 35006 ft 486 kts 59°
2026-05-05 22:07 53.31598 -159.12479 35006 ft 486 kts 59°
2026-05-05 22:08 53.35022 -159.02776 35006 ft 486 kts 59°
2026-05-05 22:08 53.38443 -158.93047 35006 ft 486 kts 59°
2026-05-05 22:09 53.41875 -158.83250 35006 ft 486 kts 59°
2026-05-05 22:09 53.45267 -158.73529 35006 ft 486 kts 59°
2026-05-05 22:10 53.48672 -158.63733 35006 ft 486 kts 59°
2026-05-05 22:10 53.52075 -158.53908 35006 ft 486 kts 59°
2026-05-05 22:11 53.55457 -158.44099 35006 ft 486 kts 59°
2026-05-05 22:11 53.58262 -158.35938 35006 ft 486 kts 59°
2026-05-05 22:12 53.62192 -158.24425 35006 ft 487 kts 60°
2026-05-05 22:12 53.65537 -158.14589 35006 ft 487 kts 60°
2026-05-05 22:13 53.68883 -158.04721 35006 ft 487 kts 60°
2026-05-05 22:13 53.72231 -157.94814 35006 ft 487 kts 60°
2026-05-05 22:14 53.75565 -157.84911 35006 ft 487 kts 60°
2026-05-05 22:14 53.78892 -157.74988 35006 ft 487 kts 60°
2026-05-05 22:15 53.82211 -157.65051 35006 ft 487 kts 60°
2026-05-05 22:15 53.85522 -157.55093 35006 ft 487 kts 60°
2026-05-05 22:16 53.88821 -157.45136 35006 ft 487 kts 60°
2026-05-05 22:16 53.91555 -157.36852 35005 ft 487 kts 60°
2026-05-05 22:17 53.94848 -157.26816 35006 ft 487 kts 61°
2026-05-05 22:17 53.98656 -157.15153 35007 ft 487 kts 61°
2026-05-05 22:18 54.01380 -157.06790 35006 ft 487 kts 61°
2026-05-05 22:18 54.05196 -156.95032 35006 ft 487 kts 61°
2026-05-05 22:19 54.07894 -156.86685 35006 ft 487 kts 61°
2026-05-05 22:19 54.11070 -156.76836 35006 ft 487 kts 61°
2026-05-05 22:20 54.14872 -156.65091 35007 ft 487 kts 61°
2026-05-05 22:20 54.17583 -156.56647 35007 ft 487 kts 61°
2026-05-05 22:21 54.20802 -156.46547 35007 ft 487 kts 61°
2026-05-05 22:21 54.24552 -156.34712 35007 ft 487 kts 62°
2026-05-05 22:22 54.27210 -156.26262 35006 ft 487 kts 62°
2026-05-05 22:22 54.30941 -156.14351 35006 ft 487 kts 62°
2026-05-05 22:23 54.33593 -156.05861 35006 ft 487 kts 62°
2026-05-05 22:23 54.36759 -155.95691 35006 ft 487 kts 62°
2026-05-05 22:24 54.39928 -155.85472 35006 ft 487 kts 62°
2026-05-05 22:24 54.43618 -155.73518 35006 ft 487 kts 62°
2026-05-05 22:25 54.46766 -155.63272 35006 ft 487 kts 62°
2026-05-05 22:25 54.49402 -155.54658 35006 ft 487 kts 62°
2026-05-05 22:26 54.52536 -155.44377 35006 ft 487 kts 62°
2026-05-05 22:26 54.55650 -155.34117 35006 ft 487 kts 63°
2026-05-05 22:27 54.58758 -155.23807 35006 ft 487 kts 63°
2026-05-05 22:27 54.61875 -155.13423 35006 ft 487 kts 63°
2026-05-05 22:28 54.64965 -155.03102 35006 ft 487 kts 63°
2026-05-05 22:28 54.68058 -154.92729 35006 ft 487 kts 63°
2026-05-05 22:29 54.71140 -154.82349 35006 ft 487 kts 63°
2026-05-05 22:29 54.74214 -154.71951 35006 ft 487 kts 63°
2026-05-05 22:30 54.77277 -154.61546 35006 ft 487 kts 63°
2026-05-05 22:30 54.80335 -154.51112 35006 ft 487 kts 63°
2026-05-05 22:31 54.83383 -154.40665 35006 ft 487 kts 63°
2026-05-05 22:31 54.86409 -154.30241 35006 ft 487 kts 63°
2026-05-05 22:32 54.89935 -154.18008 35007 ft 487 kts 63°
2026-05-05 22:32 54.92459 -154.09225 35006 ft 487 kts 63°
2026-05-05 22:33 54.95452 -153.98776 35006 ft 487 kts 63°
2026-05-05 22:33 54.98452 -153.88257 35006 ft 487 kts 63°
2026-05-05 22:34 55.01450 -153.77699 35006 ft 487 kts 63°
2026-05-05 22:34 55.04436 -153.67139 35006 ft 487 kts 63°
2026-05-05 22:35 55.07912 -153.54781 35005 ft 487 kts 63°
2026-05-05 22:35 55.10371 -153.46001 35005 ft 486 kts 63°
2026-05-05 22:36 55.13350 -153.35425 35007 ft 486 kts 63°
2026-05-05 22:36 55.16305 -153.24834 35006 ft 486 kts 64°
2026-05-05 22:37 55.19237 -153.14224 35006 ft 486 kts 64°
2026-05-05 22:37 55.22178 -153.03534 35006 ft 486 kts 64°
2026-05-05 22:38 55.25574 -152.91119 35006 ft 486 kts 64°
2026-05-05 22:38 55.27993 -152.82237 35006 ft 486 kts 64°
2026-05-05 22:39 55.31385 -152.69728 35006 ft 486 kts 64°
2026-05-05 22:39 55.33788 -152.60823 35006 ft 486 kts 64°
2026-05-05 22:40 55.36669 -152.50099 35006 ft 486 kts 64°
2026-05-05 22:40 55.40012 -152.37590 35006 ft 486 kts 64°
2026-05-05 22:41 55.42393 -152.28628 35006 ft 486 kts 65°
2026-05-05 22:41 55.45718 -152.16036 35006 ft 486 kts 65°
2026-05-05 22:42 55.48550 -152.05275 35006 ft 486 kts 65°
2026-05-05 22:42 55.50909 -151.96277 35006 ft 486 kts 65°
2026-05-05 22:43 55.53731 -151.85463 35006 ft 486 kts 65°
2026-05-05 22:43 55.57018 -151.72809 35006 ft 486 kts 65°
2026-05-05 22:44 55.59349 -151.63791 35006 ft 486 kts 65°
2026-05-05 22:44 55.62141 -151.52937 35006 ft 486 kts 65°
2026-05-05 22:45 55.64925 -151.42065 35006 ft 486 kts 65°
2026-05-05 22:45 55.67696 -151.31187 35006 ft 486 kts 66°
2026-05-05 22:46 55.70448 -151.20305 35006 ft 486 kts 66°
2026-05-05 22:46 55.73209 -151.09345 35006 ft 486 kts 66°
2026-05-05 22:47 55.75951 -150.98413 35006 ft 486 kts 66°
2026-05-05 22:47 55.78687 -150.87457 35006 ft 486 kts 66°
2026-05-05 22:48 55.81873 -150.74635 35006 ft 486 kts 66°
2026-05-05 22:48 55.84127 -150.65509 35006 ft 486 kts 66°
2026-05-05 22:49 55.86827 -150.54527 35006 ft 486 kts 66°
2026-05-05 22:49 55.89519 -150.43518 35005 ft 486 kts 66°
2026-05-05 22:50 55.92203 -150.32466 35006 ft 486 kts 67°
2026-05-05 22:50 55.94864 -150.21423 35006 ft 486 kts 67°
2026-05-05 22:51 55.97444 -150.10307 35005 ft 486 kts 70°
2026-05-05 22:51 55.99450 -149.98763 35005 ft 486 kts 76°
2026-05-05 22:52 56.00734 -149.86920 35005 ft 486 kts 82°
2026-05-05 22:52 56.01449 -149.74905 35005 ft 487 kts 84°
2026-05-05 22:53 56.02079 -149.62968 35006 ft 487 kts 84°
2026-05-05 22:53 56.02710 -149.50961 35005 ft 487 kts 84°
2026-05-05 22:54 56.03441 -149.36912 35005 ft 487 kts 84°
2026-05-05 22:54 56.03956 -149.26868 35006 ft 487 kts 85°
2026-05-05 22:55 56.04660 -149.12872 35007 ft 487 kts 85°
2026-05-05 22:55 56.05153 -149.02885 35006 ft 487 kts 85°
2026-05-05 22:56 56.05737 -148.90836 35006 ft 487 kts 85°
2026-05-05 22:56 56.06404 -148.76787 35006 ft 487 kts 85°
2026-05-05 22:57 56.06868 -148.66794 35006 ft 487 kts 85°
2026-05-05 22:57 56.07417 -148.54750 35005 ft 487 kts 85°
2026-05-05 22:58 56.08043 -148.40668 35005 ft 487 kts 85°
2026-05-05 22:58 56.08478 -148.30662 35006 ft 487 kts 86°
2026-05-05 22:59 56.08993 -148.18556 35007 ft 487 kts 86°
2026-05-05 22:59 56.09491 -148.06558 35007 ft 487 kts 86°
2026-05-05 23:00 56.10229 -147.88480 35006 ft 487 kts 85°
2026-05-05 23:00 56.10733 -147.76392 35006 ft 487 kts 85°
2026-05-05 23:01 56.11209 -147.64352 35007 ft 487 kts 86°
2026-05-05 23:01 56.11737 -147.50266 35007 ft 487 kts 86°
2026-05-05 23:02 56.12101 -147.40227 35007 ft 487 kts 86°
2026-05-05 23:02 56.12528 -147.28114 35006 ft 487 kts 86°
2026-05-05 23:03 56.12939 -147.16055 35006 ft 487 kts 86°
2026-05-05 23:03 56.13340 -147.03970 35006 ft 487 kts 86°
2026-05-05 23:04 56.13730 -146.91899 35006 ft 487 kts 86°
2026-05-05 23:04 56.14171 -146.77763 35006 ft 487 kts 86°
2026-05-05 23:05 56.14474 -146.67720 35007 ft 487 kts 86°
2026-05-05 23:05 56.14887 -146.53606 35007 ft 487 kts 86°
2026-05-05 23:06 56.15227 -146.41507 35007 ft 487 kts 86°
2026-05-05 23:06 56.15554 -146.29462 35006 ft 487 kts 88°
2026-05-05 23:07 56.15819 -146.19325 35006 ft 487 kts 88°
2026-05-05 23:07 56.16125 -146.07266 35006 ft 487 kts 87°
2026-05-05 23:08 56.16420 -145.95184 35006 ft 487 kts 87°
2026-05-05 23:08 56.16703 -145.83081 35006 ft 487 kts 87°
2026-05-05 23:09 56.16974 -145.70985 35006 ft 487 kts 87°
2026-05-05 23:09 56.17234 -145.58874 35007 ft 487 kts 87°
2026-05-05 23:10 56.17482 -145.46756 35007 ft 487 kts 87°
2026-05-05 23:10 56.17752 -145.32820 35007 ft 487 kts 88°
2026-05-05 23:11 56.17973 -145.20686 35006 ft 487 kts 88°
2026-05-05 23:11 56.18148 -145.10608 35006 ft 487 kts 88°
2026-05-05 23:12 56.18349 -144.98441 35006 ft 487 kts 88°
2026-05-05 23:12 56.18536 -144.86362 35006 ft 487 kts 88°
2026-05-05 23:13 56.18710 -144.74287 35006 ft 486 kts 88°
2026-05-05 23:13 56.18899 -144.60104 35007 ft 486 kts 88°
2026-05-05 23:14 56.19023 -144.50014 35007 ft 486 kts 88°
2026-05-05 23:14 56.19180 -144.35893 35007 ft 486 kts 88°
2026-05-05 23:15 56.19279 -144.25832 35006 ft 486 kts 89°
2026-05-05 23:15 56.19400 -144.11687 35006 ft 486 kts 89°
2026-05-05 23:16 56.19467 -144.01631 35006 ft 486 kts 90°
2026-05-05 23:16 56.19194 -143.89473 35007 ft 486 kts 93°
2026-05-05 23:17 56.18800 -143.77423 35006 ft 486 kts 93°
2026-05-05 23:17 56.18310 -143.63294 35007 ft 486 kts 93°
2026-05-05 23:18 56.17950 -143.53220 35007 ft 486 kts 93°
2026-05-05 23:18 56.17510 -143.41173 35007 ft 486 kts 93°
2026-05-05 23:19 56.17058 -143.29120 35006 ft 486 kts 94°
2026-05-05 23:19 56.16512 -143.14949 35006 ft 486 kts 94°
2026-05-05 23:20 56.16116 -143.04909 35006 ft 486 kts 94°
2026-05-05 23:20 56.15628 -142.92873 35006 ft 486 kts 94°
2026-05-05 23:21 56.15127 -142.80774 35006 ft 486 kts 94°
2026-05-05 23:21 56.14529 -142.66710 35007 ft 486 kts 94°
2026-05-05 23:22 56.14090 -142.56618 35007 ft 486 kts 94°
2026-05-05 23:22 56.13554 -142.44562 35007 ft 486 kts 94°
2026-05-05 23:23 56.13006 -142.32513 35007 ft 486 kts 95°
2026-05-05 23:23 56.12450 -142.20494 35006 ft 486 kts 95°
2026-05-05 23:24 56.11880 -142.08458 35006 ft 486 kts 95°
2026-05-05 23:24 56.11295 -141.96368 35006 ft 486 kts 95°
2026-05-05 23:25 56.10701 -141.84338 35006 ft 486 kts 95°
2026-05-05 23:25 56.10092 -141.72252 35007 ft 486 kts 95°
2026-05-05 23:26 56.09477 -141.60275 35007 ft 486 kts 95°
2026-05-05 23:26 56.08844 -141.48190 35007 ft 486 kts 95°
2026-05-05 23:27 56.08206 -141.36232 35007 ft 486 kts 95°
2026-05-05 23:27 56.07554 -141.24223 35006 ft 486 kts 96°
2026-05-05 23:28 56.06889 -141.12187 35006 ft 486 kts 96°
2026-05-05 23:28 56.06211 -141.00148 35006 ft 486 kts 96°
2026-05-05 23:29 56.05521 -140.88127 35006 ft 486 kts 96°
2026-05-05 23:29 56.04704 -140.74178 35007 ft 486 kts 96°
2026-05-05 23:30 56.04107 -140.64146 35007 ft 486 kts 96°
2026-05-05 23:30 56.03377 -140.52101 35007 ft 486 kts 96°
2026-05-05 23:31 56.02513 -140.38119 35007 ft 486 kts 96°
2026-05-05 23:31 56.01886 -140.28162 35006 ft 486 kts 97°
2026-05-05 23:32 56.01115 -140.16177 35006 ft 486 kts 97°
2026-05-05 23:32 56.00337 -140.04187 35005 ft 486 kts 96°
2026-05-05 23:33 55.99910 -139.92201 35006 ft 486 kts 92°
2026-05-05 23:33 55.99622 -139.78111 35006 ft 486 kts 92°
2026-05-05 23:34 55.99400 -139.68127 35007 ft 486 kts 92°
2026-05-05 23:34 55.99111 -139.56045 35007 ft 486 kts 92°
2026-05-05 23:35 55.98809 -139.44051 35007 ft 486 kts 92°
2026-05-05 23:35 55.98490 -139.31940 35007 ft 486 kts 93°
2026-05-05 23:36 55.98162 -139.19894 35006 ft 487 kts 93°
2026-05-05 23:36 55.97823 -139.07886 35006 ft 487 kts 93°
2026-05-05 23:37 55.97472 -138.95889 35006 ft 487 kts 93°
2026-05-05 23:37 55.97106 -138.83794 35006 ft 487 kts 93°
2026-05-05 23:38 55.96732 -138.71828 35007 ft 487 kts 93°
2026-05-05 23:38 55.96344 -138.59801 35007 ft 487 kts 93°
2026-05-05 23:39 55.95946 -138.47792 35007 ft 487 kts 93°
2026-05-05 23:39 55.95535 -138.35773 35007 ft 487 kts 93°
2026-05-05 23:40 55.95121 -138.23972 35006 ft 487 kts 94°
2026-05-05 23:40 55.94687 -138.11986 35006 ft 487 kts 94°
2026-05-05 23:41 55.94241 -138.00009 35006 ft 487 kts 94°
2026-05-05 23:41 55.93781 -137.87955 35006 ft 487 kts 94°
2026-05-05 23:42 55.93310 -137.75952 35007 ft 487 kts 94°
2026-05-05 23:42 55.92827 -137.63936 35007 ft 487 kts 94°
2026-05-05 23:43 55.92330 -137.51932 35007 ft 487 kts 94°
2026-05-05 23:43 55.91821 -137.39970 35007 ft 487 kts 94°
2026-05-05 23:44 55.91293 -137.27962 35006 ft 487 kts 95°
2026-05-05 23:44 55.90750 -137.15981 35006 ft 487 kts 95°
2026-05-05 23:45 55.90163 -137.03986 35006 ft 487 kts 97°
2026-05-05 23:45 55.89020 -136.92105 35005 ft 487 kts 102°
2026-05-05 23:46 55.87474 -136.80368 35006 ft 487 kts 103°
2026-05-05 23:46 55.85917 -136.68700 35006 ft 487 kts 103°
2026-05-05 23:47 55.84360 -136.57050 35006 ft 487 kts 103°
2026-05-05 23:47 55.82790 -136.45357 35006 ft 487 kts 103°
2026-05-05 23:48 55.81216 -136.33710 35005 ft 487 kts 104°
2026-05-05 23:48 55.79621 -136.21971 35006 ft 487 kts 104°
2026-05-05 23:49 55.78027 -136.10335 35006 ft 487 kts 104°
2026-05-05 23:49 55.76426 -135.98755 35006 ft 487 kts 104°
2026-05-05 23:50 55.74799 -135.87082 35006 ft 487 kts 104°
2026-05-05 23:50 55.73169 -135.75470 35006 ft 487 kts 104°
2026-05-05 23:51 55.71522 -135.63838 35006 ft 487 kts 104°
2026-05-05 23:51 55.69871 -135.52254 35006 ft 487 kts 104°
2026-05-05 23:52 55.68200 -135.40619 35006 ft 487 kts 104°
2026-05-05 23:52 55.66531 -135.29076 35006 ft 487 kts 104°
2026-05-05 23:53 55.64851 -135.17519 35006 ft 487 kts 104°
2026-05-05 23:53 55.63155 -135.05949 35006 ft 487 kts 104°
2026-05-05 23:54 55.61447 -134.94395 35006 ft 487 kts 104°
2026-05-05 23:54 55.59722 -134.82814 35006 ft 487 kts 104°
2026-05-05 23:55 55.57995 -134.71306 35006 ft 487 kts 104°
2026-05-05 23:55 55.56252 -134.59772 35006 ft 487 kts 104°
2026-05-05 23:56 55.54502 -134.48276 35006 ft 486 kts 104°
2026-05-05 23:56 55.52747 -134.36822 35006 ft 486 kts 104°
2026-05-05 23:57 55.50978 -134.25342 35006 ft 486 kts 105°
2026-05-05 23:57 55.49191 -134.13817 35006 ft 486 kts 105°
2026-05-05 23:58 55.47400 -134.02361 35006 ft 486 kts 105°
2026-05-05 23:58 55.45603 -133.90956 35006 ft 486 kts 105°
2026-05-05 23:59 55.43782 -133.79478 35006 ft 486 kts 105°
2026-05-05 23:59 55.41963 -133.68089 35006 ft 486 kts 105°
2026-05-06 00:00 55.40127 -133.56671 35006 ft 486 kts 105°
2026-05-06 00:00 55.38276 -133.45238 35006 ft 486 kts 105°
2026-05-06 00:01 55.36420 -133.33856 35006 ft 486 kts 106°
2026-05-06 00:01 55.34554 -133.22452 35006 ft 486 kts 106°
2026-05-06 00:02 55.32677 -133.11067 35006 ft 486 kts 106°
2026-05-06 00:02 55.30796 -132.99750 35006 ft 486 kts 106°
2026-05-06 00:03 55.28889 -132.88348 35006 ft 486 kts 106°
2026-05-06 00:03 55.26987 -132.77060 35006 ft 486 kts 106°
2026-05-06 00:04 55.25067 -132.65738 35006 ft 486 kts 106°
2026-05-06 00:04 55.23127 -132.54370 35007 ft 486 kts 106°
2026-05-06 00:05 55.20219 -132.37477 35007 ft 486 kts 106°
2026-05-06 00:06 55.18250 -132.26109 35006 ft 486 kts 107°
2026-05-06 00:06 55.16285 -132.14847 35006 ft 486 kts 107°
2026-05-06 00:07 55.13972 -132.01706 35006 ft 486 kts 107°
2026-05-06 00:07 55.12303 -131.92303 35006 ft 486 kts 107°
2026-05-06 00:08 55.10288 -131.81052 35006 ft 486 kts 107°
2026-05-06 00:08 55.08283 -131.69836 35005 ft 486 kts 106°
2026-05-06 00:09 55.06686 -131.58359 35006 ft 486 kts 100°
2026-05-06 00:09 55.05774 -131.46690 35006 ft 486 kts 94°
2026-05-06 00:10 55.05368 -131.35022 35007 ft 486 kts 92°
2026-05-06 00:10 55.04985 -131.23261 35006 ft 486 kts 94°
2026-05-06 00:11 55.04581 -131.11508 35006 ft 486 kts 94°
2026-05-06 00:11 55.04159 -130.99709 35006 ft 486 kts 94°
2026-05-06 00:12 55.03726 -130.87982 35006 ft 486 kts 94°
2026-05-06 00:12 55.03280 -130.76236 35007 ft 486 kts 94°
2026-05-06 00:13 55.02823 -130.64551 35007 ft 486 kts 94°
2026-05-06 00:13 55.02351 -130.52788 35007 ft 486 kts 94°
2026-05-06 00:14 55.01869 -130.41086 35007 ft 486 kts 94°
2026-05-06 00:14 55.01369 -130.29306 35007 ft 486 kts 94°
2026-05-06 00:15 55.00856 -130.17621 35006 ft 486 kts 95°
2026-05-06 00:15 55.00333 -130.05856 35006 ft 486 kts 94°
2026-05-06 00:16 55.00182 -129.94133 35005 ft 486 kts 89°
2026-05-06 00:16 55.00378 -129.82399 35006 ft 486 kts 88°
2026-05-06 00:17 55.00568 -129.70676 35007 ft 486 kts 88°
2026-05-06 00:17 55.00735 -129.58903 35007 ft 486 kts 88°
2026-05-06 00:18 55.00885 -129.47170 35007 ft 486 kts 88°
2026-05-06 00:18 55.01022 -129.35373 35007 ft 486 kts 88°
2026-05-06 00:19 55.01147 -129.23601 35006 ft 486 kts 89°
2026-05-06 00:19 55.01260 -129.11883 35006 ft 486 kts 89°
2026-05-06 00:20 55.01362 -129.00092 35006 ft 486 kts 89°
2026-05-06 00:20 55.01453 -128.88325 35006 ft 487 kts 89°
2026-05-06 00:21 55.01532 -128.76642 35007 ft 487 kts 89°
2026-05-06 00:21 55.01600 -128.64868 35007 ft 487 kts 89°
2026-05-06 00:22 55.01657 -128.53114 35007 ft 487 kts 89°
2026-05-06 00:22 55.01702 -128.41312 35007 ft 487 kts 89°
2026-05-06 00:23 55.01736 -128.29578 35007 ft 487 kts 90°
2026-05-06 00:23 55.01759 -128.17822 35006 ft 487 kts 90°
2026-05-06 00:24 55.01770 -128.05992 35006 ft 487 kts 90°
2026-05-06 00:24 55.01770 -127.94263 35006 ft 487 kts 90°
2026-05-06 00:25 55.01758 -127.82538 35006 ft 487 kts 90°
2026-05-06 00:25 55.01735 -127.70700 35007 ft 487 kts 90°
2026-05-06 00:26 55.01701 -127.59005 35007 ft 487 kts 90°
2026-05-06 00:26 55.01655 -127.47250 35007 ft 487 kts 90°
2026-05-06 00:27 55.01598 -127.35451 35007 ft 487 kts 90°
2026-05-06 00:27 55.01528 -127.23659 35006 ft 487 kts 91°
2026-05-06 00:28 55.01448 -127.11932 35006 ft 487 kts 91°
2026-05-06 00:28 55.01356 -127.00193 35006 ft 487 kts 91°
2026-05-06 00:29 55.01252 -126.88373 35006 ft 487 kts 91°
2026-05-06 00:29 55.01136 -126.76652 35007 ft 487 kts 91°
2026-05-06 00:30 55.01008 -126.64912 35007 ft 487 kts 91°
2026-05-06 00:30 55.00866 -126.53091 35007 ft 487 kts 91°
2026-05-06 00:31 55.00711 -126.41337 35007 ft 487 kts 91°
2026-05-06 00:31 55.00541 -126.29606 35007 ft 487 kts 92°
2026-05-06 00:32 55.00354 -126.17829 35006 ft 487 kts 91°
2026-05-06 00:32 55.00100 -126.06084 35006 ft 487 kts 94°
2026-05-06 00:33 54.99260 -125.94413 35007 ft 487 kts 100°
2026-05-06 00:33 54.97782 -125.82986 35007 ft 487 kts 103°
2026-05-06 00:34 54.96168 -125.71554 35007 ft 487 kts 103°
2026-05-06 00:34 54.94546 -125.60136 35007 ft 487 kts 103°
2026-05-06 00:35 54.92920 -125.48745 35007 ft 487 kts 103°
2026-05-06 00:35 54.91294 -125.37417 35007 ft 487 kts 103°
2026-05-06 00:36 54.89639 -125.25967 35006 ft 487 kts 104°
2026-05-06 00:36 54.87965 -125.14651 35006 ft 487 kts 104°
2026-05-06 00:37 54.86276 -125.03262 35006 ft 487 kts 104°
2026-05-06 00:37 54.84598 -124.91949 35006 ft 487 kts 104°
2026-05-06 00:38 54.82910 -124.80619 35006 ft 487 kts 104°
2026-05-06 00:38 54.81207 -124.69252 35006 ft 487 kts 104°
2026-05-06 00:39 54.79509 -124.57999 35006 ft 487 kts 104°